Latitude: N 50° 09' 49" Longitude: W 05° 11' 53" Elevation: 168m ASL

There are 22 visitors online

Adverts

<- Previous Day | Today | Next Day ->

All Data for 17 March 2018

Time
A - D
Temp
A - D
Dew Point
A - D
Humidity
A - D
Pressure
A - D
Wind
A - D
Wind Dir Gust
A - D
Rain Rate
A - D
Rain Total
00:00 6.5 6.2 98 999.7 2.2 NE 5.4 1.5 0.0
00:01 6.5 6.2 98 999.8 2.2 NE 5.4 1.5 0.0
00:02 6.5 6.2 98 999.8 2.2 NE 5.4 0.8 0.0
00:03 6.5 6.2 98 999.7 2.2 NE 5.4 0.8 0.0
00:05 6.5 6.2 98 1000.0 2.2 NE 5.4 0.0 0.0
00:06 6.6 6.5 99 1000.0 9.8 NE 9.8 2.3 0.2
00:08 6.6 6.5 99 999.9 8.3 N 9.8 3.0 0.3
00:09 6.5 6.4 99 1000.0 8.3 NE 9.8 3.8 0.3
00:10 6.5 6.2 98 999.9 9.8 NE 9.8 3.8 0.3
00:12 6.4 6.1 98 1000.0 6.0 N 9.8 2.3 0.4
00:13 6.3 6.0 98 999.9 6.0 E 9.8 3.8 0.6
00:15 6.3 6.0 98 999.8 5.4 NE 9.8 3.8 0.6
00:16 6.3 6.0 98 999.8 3.1 N 9.8 3.8 0.7
00:17 6.2 5.9 98 1000.0 4.5 NE 9.8 3.0 0.7
00:19 6.2 5.9 98 999.9 5.4 N 9.8 2.3 0.8
00:20 6.1 6.0 99 999.8 6.9 N 8.3 2.3 0.9
00:22 6.1 6.0 99 999.7 4.5 NE 8.3 3.0 0.9
00:23 6.1 5.8 98 999.8 3.8 NE 8.3 2.3 0.9
00:24 6.0 5.9 99 1000.0 4.5 NE 8.3 2.3 0.9
00:25 6.0 5.7 98 999.9 5.4 NE 6.9 2.3 1.0
00:26 6.0 5.7 98 1000.0 5.4 N 6.9 2.3 1.1
00:27 5.9 5.8 99 1000.0 3.1 N 6.9 1.5 1.1
00:28 5.9 5.6 98 1000.0 2.2 N 6.9 2.3 1.1
00:29 5.9 5.8 99 999.8 3.8 NE 6.9 3.0 1.2
00:30 5.9 5.6 98 1000.0 4.5 NE 6.9 3.0 1.3
00:32 5.9 5.8 99 1000.0 3.8 NE 5.4 3.0 1.3
00:33 5.9 5.8 99 999.9 1.6 NE 5.4 3.0 1.4
00:34 5.9 5.8 99 999.8 3.1 NE 5.4 2.3 1.4
00:35 5.8 5.7 99 999.9 3.1 NE 5.4 2.3 1.4
00:36 5.8 5.7 99 999.9 5.4 N 5.4 2.3 1.4
00:37 5.8 5.7 99 999.9 3.8 NE 5.4 1.5 1.4
00:39 5.8 5.7 99 999.9 3.8 NE 5.4 1.5 1.5
00:40 5.8 5.7 99 999.8 3.1 NE 5.4 0.8 1.5
00:41 5.8 5.7 99 999.9 3.1 NE 5.4 1.5 1.6
00:42 5.8 5.7 99 999.9 5.4 NE 5.4 2.3 1.6
00:43 5.8 5.7 99 999.9 3.1 N 5.4 3.0 1.7
00:44 5.8 5.7 99 999.8 3.8 N 5.4 3.0 1.8
00:45 5.8 5.7 99 999.8 3.8 NE 5.4 3.0 1.8
00:46 5.8 5.7 99 999.8 3.8 N 5.4 3.0 1.8
00:47 5.7 5.6 99 999.8 4.5 NE 6.0 2.3 1.9
00:48 5.7 5.6 99 999.8 3.8 NE 6.0 2.3 1.9
00:49 5.7 5.6 99 999.9 4.5 NE 6.0 1.5 1.9
00:50 5.7 5.6 99 999.9 4.5 NE 6.0 2.3 2.0
00:52 5.7 5.6 99 999.7 3.1 NE 6.0 2.3 2.0
00:53 5.8 5.7 99 999.9 6.0 NE 6.0 1.5 2.0
00:54 5.8 5.7 99 999.8 3.8 NE 6.0 2.3 2.1
00:55 5.8 5.7 99 1000.0 3.8 NE 6.0 1.5 2.1
00:56 5.8 5.7 99 999.8 3.1 NE 6.0 1.5 2.1
00:57 5.8 5.7 99 999.9 2.2 NE 6.0 1.5 2.1
00:58 5.7 5.6 99 999.9 1.6 NE 6.0 2.3 2.2
00:59 5.8 5.7 99 999.9 2.2 NE 6.0 1.5 2.2
01:00 5.8 5.7 99 999.9 2.2 NE 6.0 1.5 2.2
01:01 5.8 5.7 99 1000.0 2.2 NE 6.0 1.5 2.2
01:03 5.8 5.7 99 1000.1 2.2 NE 3.8 0.0 2.2
01:04 5.8 5.7 99 999.9 2.2 NE 3.8 0.0 2.2
01:05 5.8 5.7 99 999.8 2.2 NE 3.8 0.0 2.2
01:06 5.7 5.6 99 999.8 2.2 NE 3.1 0.8 2.3
01:07 5.7 5.6 99 999.9 3.8 N 3.8 1.5 2.3
01:08 5.7 5.6 99 1000.1 3.1 N 3.8 1.5 2.3
01:09 5.7 5.6 99 999.9 4.5 N 4.5 1.5 2.4
01:10 5.7 5.6 99 1000.1 3.8 NE 4.5 3.8 2.5
01:11 5.8 5.7 99 999.9 2.2 N 7.6 4.5 2.8
01:12 5.7 5.6 99 999.9 3.8 N 7.6 5.3 2.9
01:13 5.8 5.7 99 1000.0 3.1 N 7.6 6.8 3.0
01:15 5.7 5.6 99 1000.0 3.1 SE 7.6 6.8 3.1
01:16 5.8 5.7 99 999.9 3.1 NE 7.6 6.8 3.2
01:17 5.8 5.7 99 999.9 1.6 N 7.6 6.8 3.3
01:18 5.7 5.6 99 999.9 4.5 SE 7.6 6.8 3.5
01:19 5.7 5.6 99 999.8 6.0 SE 7.6 6.8 3.6
01:20 5.8 5.7 99 999.9 8.3 SE 8.3 6.8 3.8
01:21 5.8 5.7 99 999.9 5.4 SE 8.3 6.8 3.8
01:22 5.7 5.6 99 1000.0 6.9 S 8.3 6.0 3.8
01:23 5.7 5.6 99 1000.0 3.8 N 8.3 5.3 4.0
01:25 5.7 5.6 99 1000.1 3.1 N 8.3 6.0 4.2
01:26 5.7 5.6 99 1000.0 3.8 NE 8.3 5.3 4.2
01:27 5.7 5.6 99 1000.1 4.5 N 8.3 4.5 4.2
01:28 5.7 5.6 99 1000.1 3.8 N 8.3 3.8 4.2
01:29 5.7 5.6 99 1000.0 2.2 N 8.3 3.8 4.3
01:30 5.7 5.6 99 999.9 1.6 N 8.3 1.5 4.3
01:31 5.7 5.6 99 1000.0 0.7 N 6.9 0.8 4.3
01:32 5.7 5.6 99 1000.0 1.6 N 6.9 0.8 4.3
01:33 5.7 5.6 99 1000.1 2.2 N 4.5 1.5 4.3
01:34 5.8 5.7 99 999.9 1.6 N 4.5 0.8 4.3
01:35 5.8 5.7 99 1000.0 3.8 N 4.5 0.8 4.3
01:36 5.7 5.6 99 1000.0 2.2 N 4.5 0.8 4.3
01:38 5.8 5.7 99 999.9 2.2 N 3.8 0.0 4.3
01:39 5.7 5.6 99 999.9 1.6 N 3.8 0.8 4.4
01:40 5.7 5.6 99 999.9 1.6 N 3.8 0.8 4.4
01:41 5.7 5.6 99 1000.0 1.6 N 3.8 0.8 4.4
01:42 5.7 5.6 99 1000.0 0.7 N 3.8 0.8 4.4
01:43 5.7 5.6 99 1000.0 0.7 N 3.8 0.8 4.4
01:44 5.7 5.6 99 1000.2 0.7 N 3.8 0.0 4.4
01:45 5.7 5.6 99 1000.0 0.0 N 3.8 0.0 4.4
01:46 5.7 5.6 99 999.9 1.6 N 2.2 0.0 4.4
01:47 5.7 5.6 99 999.9 0.7 N 2.2 0.0 4.4
01:48 5.7 5.6 99 1000.0 0.7 N 1.6 0.0 4.4
01:49 5.7 5.6 99 999.9 1.6 N 1.6 0.0 4.4
01:50 5.7 5.6 99 1000.0 1.6 N 1.6 0.0 4.4
01:52 5.7 5.6 99 999.9 1.6 N 1.6 0.0 4.4
01:53 5.7 5.6 99 1000.0 1.6 N 1.6 0.0 4.4
01:54 5.7 5.6 99 999.9 1.6 N 1.6 0.0 4.4
01:55 5.7 5.6 99 999.8 2.2 N 2.2 0.0 4.4
01:56 5.7 5.6 99 999.9 1.6 N 2.2 0.0 4.4
01:57 5.7 5.6 99 999.8 1.6 N 2.2 0.0 4.4
01:58 5.7 5.6 99 999.7 1.6 N 2.2 0.0 4.4
01:59 5.7 5.6 99 999.7 3.8 N 3.8 0.8 4.5
02:00 5.7 5.6 99 999.9 2.2 N 3.8 1.5 4.5
02:01 5.7 5.6 99 999.7 2.2 N 3.8 1.5 4.5
02:02 5.7 5.6 99 999.9 2.2 N 3.8 1.5 4.5
02:03 5.7 5.6 99 999.8 2.2 N 3.8 1.5 4.5
02:04 5.7 5.6 99 999.9 2.2 N 3.8 0.8 4.5
02:05 5.8 5.7 99 999.9 3.1 N 3.8 0.0 4.6
02:07 5.8 5.7 99 999.8 3.8 NE 3.8 0.8 4.6
02:08 5.8 5.7 99 999.7 2.2 NE 3.8 0.8 4.6
02:09 5.8 5.7 99 999.8 2.2 NE 3.8 0.8 4.6
02:10 5.8 5.7 99 999.7 1.6 NE 3.8 0.8 4.6
02:11 5.8 5.7 99 999.7 2.2 NE 3.8 0.0 4.7
02:12 5.8 5.7 99 999.6 5.4 NE 5.4 0.8 4.7
02:13 5.9 5.8 99 999.7 4.5 N 5.4 0.8 4.7
02:14 5.9 5.8 99 999.6 4.5 NE 6.0 1.5 4.8
02:15 5.9 5.8 99 999.7 3.1 NE 6.0 2.3 4.8
02:17 5.9 5.8 99 999.7 3.8 NE 6.0 1.5 4.8
02:18 5.9 5.8 99 999.7 4.5 N 6.0 1.5 4.8
02:19 5.9 5.8 99 999.9 3.1 NE 6.0 1.5 4.9
02:20 5.9 5.8 99 999.8 4.5 NE 6.0 0.8 4.9
02:21 5.9 5.8 99 999.7 3.1 NE 6.0 0.8 4.9
02:22 5.9 5.8 99 999.9 3.1 N 6.0 0.8 4.9
02:23 5.9 5.8 99 999.7 4.5 N 6.0 0.8 4.9
02:24 6.0 5.9 99 999.8 5.4 N 6.0 0.0 4.9
02:25 6.0 5.9 99 999.7 3.1 N 5.4 0.0 4.9
02:26 6.0 5.9 99 999.9 3.1 N 5.4 0.0 4.9
02:27 6.0 5.9 99 999.9 3.1 N 5.4 0.0 4.9
02:29 6.0 5.9 99 999.9 3.1 N 5.4 0.0 4.9
02:30 6.1 6.0 99 999.9 4.5 N 5.4 0.0 4.9
02:38 5.8 5.7 99 1000.0 2.2 NE 6.0 10.6 6.0
02:39 5.8 5.7 99 1000.1 2.2 NE 6.0 11.3 6.0
02:40 5.7 5.6 99 1000.1 0.7 NE 6.0 11.3 6.0
02:41 5.6 5.5 99 1000.0 0.7 NE 6.0 4.5 6.0
02:42 5.5 5.4 99 1000.0 1.6 NE 6.0 1.5 6.0
02:43 5.5 5.4 99 1000.1 2.2 NE 6.0 1.5 6.0
02:44 5.4 5.3 99 1000.0 2.2 NE 6.0 0.8 6.0
02:45 5.4 5.3 99 999.9 3.1 NE 5.4 0.8 6.1
02:47 5.3 5.2 99 1000.0 3.8 NE 3.8 0.8 6.1
02:48 5.3 5.2 99 999.9 3.1 NE 3.8 0.8 6.1
02:49 5.3 5.2 99 999.9 3.1 NE 3.8 0.8 6.1
02:50 5.2 5.1 99 999.9 1.6 NE 4.5 1.5 6.2
02:51 5.2 5.1 99 1000.0 1.6 NE 4.5 0.8 6.2
02:52 5.2 5.1 99 999.9 1.6 NE 4.5 0.8 6.2
02:53 5.1 5.0 99 1000.0 4.5 NE 4.5 1.5 6.2
02:54 5.1 5.0 99 1000.1 2.2 E 4.5 1.5 6.3
02:55 5.1 5.0 99 1000.2 2.2 E 4.5 1.5 6.3
02:56 5.1 5.0 99 1000.0 0.7 E 4.5 1.5 6.3
02:57 5.1 5.0 99 1000.0 2.2 E 4.5 1.5 6.3
02:58 5.1 5.0 99 1000.0 2.2 E 4.5 0.8 6.3
03:00 5.1 5.0 99 999.9 3.1 SE 4.5 0.0 6.3
03:01 5.1 5.0 99 999.8 3.1 SE 4.5 0.0 6.3
03:02 5.1 5.0 99 999.8 3.1 SE 4.5 0.0 6.3
03:03 5.1 5.0 99 999.8 3.1 SE 4.5 0.0 6.3
03:04 5.1 5.0 99 999.8 3.1 SE 3.1 0.0 6.3
03:05 5.1 5.0 99 999.9 2.2 SE 3.1 0.0 6.5
03:06 5.1 5.0 99 999.8 2.2 SE 3.1 2.3 6.5
03:07 5.1 5.0 99 999.9 2.2 SE 3.1 2.3 6.5
03:08 5.2 5.1 99 999.9 2.2 SE 3.1 2.3 6.6
03:09 5.2 5.1 99 999.8 2.2 SE 3.1 3.0 6.6
03:10 5.2 5.1 99 999.8 3.8 NE 3.8 3.0 6.6
03:11 5.2 5.1 99 999.8 2.2 NE 3.8 0.8 6.6
03:12 5.2 5.1 99 999.7 1.6 NE 3.8 0.8 6.6
03:13 5.2 5.1 99 999.8 1.6 NE 3.8 0.8 6.6
03:14 5.2 5.1 99 999.7 1.6 NE 3.8 0.8 6.6
03:15 5.3 5.2 99 999.6 1.6 NE 3.8 0.8 6.6
03:16 5.3 5.2 99 999.7 1.6 NE 3.8 0.8 6.6
03:17 5.3 5.2 99 999.5 0.7 NE 3.8 0.8 6.6
03:18 5.3 5.2 99 999.5 1.6 NE 3.8 0.8 6.6
03:19 5.3 5.2 99 999.6 2.2 NE 3.8 0.0 6.6
03:20 5.3 5.2 99 999.5 3.1 NE 3.1 0.0 6.6
03:22 5.4 5.3 99 999.7 1.6 NE 3.1 0.0 6.6
03:23 5.4 5.3 99 999.6 2.2 NE 3.1 0.0 6.6
03:24 5.4 5.3 99 999.5 1.6 NE 3.1 0.0 6.6
03:25 5.5 5.4 99 999.5 1.6 NE 3.1 0.0 6.6
03:26 5.5 5.4 99 999.7 2.2 NE 3.1 0.0 6.6
03:27 5.5 5.4 99 999.8 1.6 NE 3.1 0.0 6.6
03:28 5.5 5.4 99 999.7 0.7 NE 3.1 0.0 6.6
03:29 5.5 5.4 99 999.8 0.0 NE 3.1 0.0 6.6
03:30 5.5 5.4 99 999.6 0.7 NE 3.1 0.0 6.6
03:32 5.5 5.4 99 999.7 2.2 NE 2.2 0.0 6.6
03:33 5.6 5.5 99 999.7 2.2 NE 2.2 0.0 6.6
03:34 5.6 5.5 99 999.7 2.2 NE 2.2 0.0 6.6
03:35 5.6 5.5 99 999.7 3.1 NE 3.1 0.0 6.6
03:36 5.6 5.5 99 999.7 3.8 N 3.8 0.0 6.6
03:37 5.6 5.5 99 999.7 6.0 NE 6.0 0.0 6.6
03:38 5.7 5.6 99 999.7 6.0 NE 6.0 0.0 6.6
03:39 5.6 5.5 99 999.7 6.0 NE 6.0 0.0 6.6
03:40 5.7 5.6 99 999.7 6.9 NE 6.9 0.0 6.6
03:41 5.8 5.7 99 999.7 5.4 NE 6.9 0.0 6.6
03:42 5.8 5.7 99 999.8 6.0 NE 6.9 0.0 6.6
03:43 5.9 5.8 99 999.7 11.4 NE 11.4 0.0 6.6
03:44 5.9 5.8 99 999.6 6.9 N 11.4 0.0 6.6
03:45 6.0 5.9 99 999.7 6.0 E 11.4 0.0 6.6
03:46 6.0 5.9 99 999.6 6.9 NE 11.4 0.0 6.6
03:47 6.0 5.9 99 999.6 3.8 N 11.4 0.0 6.6
03:48 6.1 6.0 99 999.5 6.0 N 11.4 0.0 6.6
03:49 6.1 6.0 99 999.7 7.6 NE 11.4 0.0 6.6
03:50 6.2 6.1 99 999.6 7.6 NE 11.4 0.0 6.6
03:51 6.2 6.1 99 999.7 7.6 SE 11.4 0.0 6.6
03:52 6.2 6.1 99 999.7 9.2 NE 11.4 0.0 6.6
03:53 6.2 6.1 99 999.8 9.8 N 9.8 0.0 6.6
03:54 6.2 6.1 99 999.7 3.1 NE 9.8 0.0 6.6
03:56 6.3 6.2 99 999.8 6.9 NE 9.8 0.0 6.6
03:57 6.3 6.2 99 999.7 8.3 NW 9.8 0.0 6.6
03:58 6.3 6.2 99 999.7 6.0 E 9.8 0.0 6.6
03:59 6.3 6.2 99 999.7 9.2 NE 9.8 0.0 6.6
04:00 6.3 6.2 99 999.6 7.6 N 9.8 0.0 6.6
04:01 6.3 6.2 99 999.6 7.6 N 9.8 0.0 6.6
04:02 6.3 6.2 99 999.7 7.6 N 9.8 0.0 6.6
04:03 6.3 6.2 99 999.6 7.6 N 9.8 0.0 6.6
04:04 6.3 6.2 99 999.6 7.6 N 9.2 0.0 6.6
04:05 6.3 6.2 99 999.6 7.6 N 9.2 0.0 6.6
04:06 6.4 6.3 99 999.7 10.7 NE 10.7 0.0 6.6
04:07 6.4 6.3 99 999.6 6.0 N 10.7 0.0 6.6
04:09 6.3 6.2 99 999.7 7.6 NE 10.7 0.0 6.6
04:10 6.4 6.3 99 999.6 8.3 NE 10.7 0.0 6.6
04:11 6.4 6.3 99 999.7 6.9 NE 10.7 0.0 6.6
04:12 6.4 6.3 99 999.7 9.2 NE 10.7 0.0 6.6
04:13 6.4 6.3 99 999.5 6.9 NE 10.7 0.0 6.6
04:14 6.4 6.3 99 999.7 6.9 NE 10.7 0.0 6.6
04:15 6.4 6.3 99 999.5 6.9 N 10.7 0.0 6.6
04:16 6.4 6.3 99 999.5 8.3 NE 9.2 0.0 6.6
04:17 6.4 6.3 99 999.7 5.4 N 9.2 0.0 6.6
04:18 6.4 6.3 99 999.5 11.4 NE 11.4 0.0 6.6
04:19 6.4 6.3 99 999.7 7.6 NE 11.4 0.0 6.6
04:20 6.3 6.2 99 999.7 6.0 NE 11.4 0.0 6.6
04:22 6.4 6.3 99 999.6 9.8 N 11.4 0.0 6.6
04:23 6.4 6.3 99 999.6 6.9 N 11.4 0.0 6.6
04:24 6.4 6.3 99 999.6 5.4 NE 11.4 0.0 6.6
04:25 6.5 6.4 99 999.7 6.0 NE 11.4 0.0 6.6
04:26 6.4 6.3 99 999.7 6.0 NE 11.4 0.0 6.6
04:27 6.5 6.4 99 999.7 6.0 NE 11.4 0.0 6.6
04:28 6.5 6.4 99 999.5 3.1 NE 11.4 0.0 6.6
04:29 6.4 6.3 99 999.5 4.5 NE 9.8 0.0 6.6
04:30 6.5 6.4 99 999.6 6.0 NE 9.8 0.0 6.6
04:31 6.5 6.4 99 999.5 9.2 NE 9.8 0.0 6.6
04:32 6.5 6.4 99 999.7 6.9 NE 9.2 0.0 6.6
04:33 6.5 6.4 99 999.7 6.9 NE 9.2 0.0 6.6
04:34 6.5 6.4 99 999.6 6.9 NE 9.2 0.0 6.6
04:35 6.5 6.4 99 999.5 3.8 NE 9.2 0.0 6.6
04:36 6.5 6.4 99 999.7 4.5 NE 9.2 0.0 6.6
04:38 6.6 6.5 99 999.5 6.9 NE 9.2 0.0 6.6
04:39 6.6 6.5 99 999.5 13.6 NE 13.6 0.0 6.6
04:40 6.5 6.4 99 999.6 6.9 NE 13.6 0.0 6.6
04:41 6.5 6.4 99 999.6 9.2 NE 13.6 0.0 6.6
04:43 6.5 6.4 99 999.5 7.6 NE 13.6 0.0 6.6
04:44 6.6 6.5 99 999.6 4.5 NE 13.6 0.0 6.6
04:45 6.5 6.4 99 999.6 6.9 NE 13.6 0.0 6.6
04:46 6.6 6.5 99 999.6 6.9 NE 13.6 0.0 6.6
04:47 6.6 6.5 99 999.6 9.2 N 13.6 0.0 6.6
04:48 6.6 6.5 99 999.6 6.0 NE 13.6 0.0 6.6
04:49 6.6 6.5 99 999.5 7.6 NE 13.6 0.0 6.6
04:50 6.7 6.6 99 999.8 6.0 NE 9.2 0.0 6.6
04:51 6.7 6.6 99 999.7 2.2 NE 9.2 0.0 6.6
04:52 6.6 6.5 99 999.7 3.8 N 11.4 0.0 6.6
04:53 6.7 6.6 99 999.7 6.0 NE 11.4 0.0 6.6
04:54 6.7 6.6 99 999.6 6.0 NE 11.4 0.0 6.6
04:55 6.7 6.6 99 999.7 9.2 NE 11.4 0.0 6.6
04:56 6.7 6.6 99 999.8 7.6 NE 11.4 0.0 6.6
04:57 6.7 6.6 99 999.8 7.6 NE 11.4 0.0 6.6
04:58 6.7 6.6 99 999.7 5.4 NE 11.4 0.0 6.6
04:59 6.7 6.6 99 999.8 6.0 NE 11.4 0.0 6.6
05:00 6.7 6.6 99 999.8 6.0 NE 11.4 0.0 6.6
05:01 6.7 6.6 99 999.7 6.0 NE 11.4 0.0 6.6
05:02 6.7 6.6 99 999.7 6.0 NE 9.2 0.0 6.6
05:04 6.7 6.6 99 999.6 6.0 NE 9.2 0.0 6.6
05:05 6.7 6.6 99 999.7 7.6 N 9.2 0.0 6.6
05:06 6.7 6.6 99 999.7 9.8 NE 9.8 0.0 6.6
05:07 6.7 6.6 99 999.7 7.6 NE 9.8 0.0 6.6
05:08 6.8 6.7 99 999.7 7.6 NE 9.8 0.0 6.6
05:09 6.8 6.7 99 999.7 6.9 NE 9.8 0.0 6.6
05:10 6.8 6.7 99 999.9 8.3 NE 9.8 0.0 6.6
05:11 6.8 6.7 99 999.9 7.6 NE 9.8 0.0 6.6
05:12 6.8 6.7 99 999.8 3.1 NE 9.8 0.0 6.6
05:13 6.8 6.7 99 999.9 3.1 N 9.8 0.0 6.6
05:14 6.8 6.7 99 999.8 8.3 NE 9.8 0.0 6.6
05:15 6.8 6.7 99 999.8 3.1 NE 9.8 0.0 6.6
05:16 6.8 6.7 99 999.9 7.6 NE 8.3 0.0 6.6
05:17 6.8 6.7 99 999.9 3.1 N 8.3 0.0 6.6
05:18 6.8 6.7 99 1000.0 5.4 NE 8.3 0.0 6.6
05:19 6.8 6.7 99 999.8 5.4 NE 8.3 0.0 6.6
05:20 6.8 6.7 99 999.8 7.6 N 8.3 0.0 6.6
05:21 6.8 6.7 99 999.9 4.5 N 8.3 0.0 6.6
05:22 6.8 6.7 99 1000.0 2.2 N 8.3 0.0 6.6
05:23 6.8 6.7 99 999.9 2.2 N 8.3 0.0 6.6
05:25 6.8 6.7 99 999.8 6.9 NE 7.6 0.0 6.6
05:26 6.8 6.7 99 999.9 5.4 NE 7.6 0.0 6.6
05:27 6.8 6.7 99 999.8 9.2 NE 9.2 0.0 6.6
05:28 6.8 6.7 99 999.9 7.6 NE 9.2 0.0 6.6
05:29 6.8 6.7 99 1000.0 10.7 N 10.7 0.0 6.6
05:30 6.8 6.7 99 999.9 6.0 NE 10.7 0.0 6.6
05:31 6.8 6.7 99 999.8 9.2 NE 10.7 0.0 6.6
05:32 6.8 6.7 99 999.8 7.6 NE 14.5 0.0 6.6
05:33 6.8 6.7 99 999.9 12.1 N 14.5 0.0 6.6
05:34 6.8 6.7 99 1000.0 6.9 NE 14.5 0.0 6.6
05:35 6.8 6.7 99 999.8 6.0 E 14.5 0.0 6.6
05:36 6.8 6.7 99 999.9 5.4 E 14.5 0.0 6.6
05:37 6.8 6.7 99 999.9 6.0 N 14.5 0.0 6.6
05:38 6.7 6.6 99 1000.0 3.8 NW 14.5 0.0 6.6
05:39 6.8 6.7 99 999.9 8.3 NE 14.5 0.0 6.6
05:40 6.8 6.7 99 999.9 6.0 NW 14.5 0.0 6.6
05:41 6.8 6.7 99 1000.0 6.0 NE 14.5 0.0 6.6
05:42 6.9 6.8 99 999.9 3.1 NE 12.1 0.0 6.6
05:43 6.8 6.7 99 999.8 5.4 NE 8.3 0.0 6.6
05:44 6.8 6.7 99 999.8 3.8 NE 8.3 0.0 6.6
05:46 6.8 6.7 99 999.8 9.8 NE 9.8 0.0 6.6
05:47 6.8 6.7 99 999.9 5.4 N 9.8 0.0 6.6
05:48 6.8 6.7 99 1000.0 4.5 NE 9.8 0.0 6.6
05:49 6.8 6.7 99 999.8 9.2 NE 9.8 0.0 6.6
05:50 6.8 6.7 99 999.8 5.4 NE 9.8 0.0 6.6
05:51 6.8 6.7 99 999.8 6.9 NE 9.8 0.0 6.6
05:52 6.8 6.7 99 1000.0 5.4 NE 9.8 0.0 6.6
05:53 6.9 6.8 99 1000.0 5.4 NE 9.8 0.0 6.6
05:54 6.8 6.7 99 999.9 6.0 NE 9.8 0.0 6.6
05:55 6.8 6.7 99 1000.0 6.9 NE 9.8 0.0 6.6
05:56 6.9 6.8 99 1000.0 4.5 N 9.2 0.0 6.6
05:57 6.8 6.7 99 999.9 2.2 NE 9.2 0.0 6.6
05:59 6.9 6.8 99 1000.1 9.2 N 9.2 0.0 6.6
06:00 6.9 6.8 99 999.9 9.2 N 9.2 0.0 6.6
06:01 6.9 6.8 99 999.9 9.2 N 9.2 0.0 6.6
06:02 6.9 6.8 99 1000.0 9.2 N 9.2 0.0 6.6
06:03 6.9 6.8 99 1000.0 9.2 N 9.2 0.0 6.6
06:04 6.9 6.8 99 999.9 9.2 N 9.2 0.0 6.6
06:05 6.8 6.7 99 1000.0 2.2 NE 9.2 0.0 6.6
06:06 6.9 6.8 99 1000.0 5.4 N 9.2 0.0 6.6
06:07 6.9 6.8 99 999.8 11.4 NE 11.4 0.0 6.6
06:09 6.9 6.8 99 999.8 6.9 NE 11.4 0.0 6.6
06:10 6.8 6.7 99 999.9 3.8 N 11.4 0.0 6.6
06:12 6.9 6.8 99 999.9 15.9 NE 15.9 0.0 6.6
06:13 6.9 6.8 99 999.8 11.4 NE 15.9 0.0 6.6
06:14 6.9 6.8 99 1000.0 9.8 NE 15.9 0.0 6.6
06:15 6.9 6.8 99 1000.0 11.4 N 15.9 0.0 6.6
06:16 6.9 6.8 99 999.8 12.1 NE 15.9 0.0 6.6
06:17 6.9 6.8 99 1000.0 10.7 NW 15.9 0.0 6.6
06:18 6.9 6.8 99 1000.0 9.2 NE 15.9 0.0 6.6
06:19 6.9 6.8 99 1000.1 10.7 N 15.9 0.0 6.6
06:20 6.9 6.8 99 1000.1 13.6 NE 15.9 0.0 6.6
06:21 6.9 6.8 99 1000.2 5.4 NE 15.9 0.0 6.7
06:22 6.9 6.8 99 1000.0 8.3 N 13.6 0.8 6.7
06:23 6.9 6.8 99 1000.1 9.2 N 13.6 0.8 6.7
06:24 6.8 6.7 99 1000.1 13.0 NE 13.6 1.5 6.7
06:26 6.8 6.7 99 1000.2 6.0 NE 13.6 1.5 6.7
06:27 6.8 6.7 99 1000.2 12.1 NE 13.6 0.8 6.7
06:28 6.8 6.7 99 1000.1 6.9 NE 13.6 1.5 6.8
06:29 6.8 6.7 99 1000.2 6.9 N 13.6 0.8 6.9
06:30 6.8 6.7 99 1000.2 6.9 NE 13.6 2.3 6.9
06:31 6.8 6.7 99 1000.1 13.6 NE 13.6 3.0 7.0
06:32 6.7 6.6 99 1000.2 9.2 N 13.6 3.0 7.1
06:33 6.7 6.6 99 1000.2 8.3 NE 13.6 3.0 7.1
06:34 6.7 6.6 99 1000.3 6.9 N 13.6 3.8 7.1
06:35 6.7 6.6 99 1000.3 6.9 NE 13.6 2.3 7.1
06:36 6.7 6.6 99 1000.3 9.2 N 13.6 1.5 7.1
06:37 6.7 6.6 99 1000.3 6.9 NE 13.6 1.5 7.1
06:38 6.7 6.6 99 1000.2 5.4 N 13.6 0.8 7.1
06:39 6.7 6.6 99 1000.1 10.7 NE 13.6 0.0 7.1
06:40 6.7 6.6 99 1000.1 6.9 NE 13.6 0.0 7.1
06:41 6.7 6.6 99 1000.3 6.0 NE 11.4 0.0 7.1
06:42 6.7 6.6 99 1000.2 9.2 NE 10.7 0.0 7.1
06:43 6.7 6.6 99 1000.3 6.9 NE 10.7 0.0 7.1
06:44 6.7 6.6 99 1000.1 3.8 N 10.7 0.0 7.1
06:45 6.6 6.5 99 1000.4 9.2 NE 10.7 0.0 7.1
06:46 6.6 6.5 99 1000.4 9.2 N 10.7 0.0 7.1
06:47 6.6 6.5 99 1000.4 6.0 NE 10.7 0.0 7.1
06:48 6.6 6.5 99 1000.4 8.3 NE 10.7 0.0 7.1
06:49 6.6 6.5 99 1000.4 6.9 N 9.2 0.0 7.1
06:50 6.6 6.5 99 1000.3 6.9 NE 9.2 0.0 7.1
06:51 6.6 6.5 99 1000.2 7.6 NE 9.2 0.0 7.1
06:52 6.6 6.5 99 1000.3 5.4 NE 9.2 0.0 7.1
06:53 6.6 6.5 99 1000.4 7.6 NE 9.2 0.0 7.1
06:54 6.6 6.5 99 1000.3 6.0 N 9.2 0.0 7.1
06:55 6.6 6.5 99 1000.3 4.5 N 9.2 0.0 7.1
06:56 6.6 6.5 99 1000.4 7.6 NE 9.2 0.0 7.1
06:57 6.6 6.5 99 1000.3 4.5 NE 8.3 0.0 7.1
06:58 6.6 6.5 99 1000.3 6.9 NE 8.3 0.0 7.1
06:59 6.6 6.5 99 1000.3 5.4 NE 7.6 0.0 7.1
07:00 6.6 6.5 99 1000.5 10.7 N 10.7 0.8 7.2
07:01 6.6 6.5 99 1000.4 10.7 N 10.7 0.8 7.2
07:02 6.6 6.5 99 1000.4 10.7 N 10.7 0.8 7.2
07:03 6.6 6.5 99 1000.4 10.7 N 10.7 0.8 7.2
07:04 6.6 6.5 99 1000.4 10.7 N 10.7 0.8 7.2
07:05 6.5 6.4 99 1000.6 9.8 N 10.7 0.0 7.2
07:06 6.5 6.4 99 1000.5 8.3 NE 10.7 0.8 7.2
07:07 6.5 6.4 99 1000.6 10.7 NE 10.7 0.8 7.2
07:08 6.5 6.4 99 1000.5 6.9 NE 10.7 1.5 7.3
07:09 6.4 6.3 99 1000.6 10.7 N 10.7 1.5 7.4
07:10 6.5 6.4 99 1000.6 7.6 N 10.7 2.3 7.4
07:11 6.4 6.3 99 1000.6 6.0 N 10.7 2.3 7.4
07:12 6.5 6.4 99 1000.5 6.0 NE 10.7 2.3 7.5
07:13 6.5 6.4 99 1000.6 5.4 NE 10.7 2.3 7.5
07:14 6.5 6.4 99 1000.6 3.1 NE 10.7 2.3 7.5
07:15 6.4 6.3 99 1000.7 0.7 NE 10.7 1.5 7.5
07:16 6.4 6.3 99 1000.6 3.8 NE 10.7 0.8 7.6
07:17 6.4 6.3 99 1000.7 5.4 NE 10.7 1.5 7.6
07:18 6.4 6.3 99 1000.7 6.9 NE 10.7 1.5 7.6
07:19 6.4 6.3 99 1000.7 6.0 NE 10.7 1.5 7.6
07:20 6.4 6.3 99 1000.7 7.6 NE 7.6 1.5 7.7
07:21 6.4 6.3 99 1000.6 6.9 NE 7.6 2.3 7.7
07:22 6.4 6.3 99 1000.7 4.5 N 7.6 2.3 7.7
07:23 6.4 6.3 99 1000.7 6.9 NE 7.6 1.5 7.7
07:24 6.4 6.3 99 1000.6 3.1 N 7.6 2.3 7.8
07:25 6.4 6.3 99 1000.6 3.1 NE 7.6 2.3 7.9
07:26 6.3 6.2 99 1000.7 3.1 NE 7.6 2.3 7.9
07:27 6.4 6.3 99 1000.6 4.5 N 7.6 2.3 7.9
07:28 6.4 6.3 99 1000.7 5.4 NE 7.6 3.0 8.1
07:29 6.4 6.3 99 1000.7 5.4 NE 7.6 3.0 8.1
07:30 6.4 6.3 99 1000.7 4.5 NE 8.3 4.5 8.2
07:31 6.4 6.3 99 1000.6 3.1 NE 8.3 4.5 8.3
07:32 6.4 6.3 99 1000.6 5.4 NE 8.3 4.5 8.4
07:33 6.4 6.3 99 1000.5 6.0 NE 8.3 4.5 8.4
07:34 6.4 6.3 99 1000.6 5.4 NE 8.3 3.8 8.4
07:35 6.3 6.2 99 1000.6 3.8 N 8.3 2.3 8.4
07:36 6.4 6.3 99 1000.6 4.5 NE 8.3 2.3 8.4
07:37 6.4 6.3 99 1000.6 6.0 NE 8.3 1.5 8.4
07:38 6.3 6.2 99 1000.7 15.2 N 15.2 0.8 8.4
07:39 6.4 6.3 99 1000.7 7.6 N 15.2 1.5 8.5
07:40 6.3 6.2 99 1000.4 9.8 NE 15.2 1.5 8.5
07:41 6.4 6.3 99 1000.6 9.2 NE 15.2 0.8 8.5
07:42 6.4 6.3 99 1000.5 9.8 N 15.2 0.8 8.5
07:43 6.4 6.3 99 1000.7 6.0 NE 15.2 0.8 8.5
07:44 6.4 6.3 99 1000.6 9.2 NE 15.2 0.0 8.6
07:45 6.4 6.3 99 1000.5 5.4 NE 15.2 0.8 8.6
07:46 6.4 6.3 99 1000.4 15.2 NE 15.2 0.8 8.6
07:47 6.5 6.4 99 1000.4 14.5 N 15.2 0.8 8.6
07:48 6.4 6.3 99 1000.7 10.7 NE 15.2 0.8 8.6
07:49 6.5 6.4 99 1000.5 9.8 NE 15.2 0.8 8.6
07:50 6.5 6.4 99 1000.6 6.0 NE 15.2 0.8 8.6
07:51 6.5 6.4 99 1000.6 6.9 NE 15.2 0.8 8.6
07:52 6.5 6.4 99 1000.6 11.4 NE 15.2 0.8 8.6
07:53 6.5 6.4 99 1000.5 5.4 NE 15.2 0.8 8.6
07:54 6.5 6.4 99 1000.6 12.1 N 15.2 0.8 8.6
07:55 6.5 6.4 99 1000.4 11.4 NE 15.2 0.0 8.6
07:56 6.5 6.4 99 1000.6 6.9 NW 15.2 0.0 8.6
07:57 6.5 6.4 99 1000.6 8.3 NE 12.1 0.0 8.6
07:58 6.5 6.4 99 1000.8 6.0 N 12.1 0.0 8.6
07:59 6.5 6.4 99 1000.8 6.9 N 12.1 0.0 8.6
08:00 6.5 6.4 99 1000.7 10.7 NE 12.1 0.8 8.7
08:01 6.5 6.4 99 1000.7 10.7 NE 12.1 0.8 8.7
08:02 6.5 6.4 99 1000.7 10.7 NE 12.1 0.8 8.7
08:03 6.5 6.4 99 1000.9 10.7 NE 12.1 0.8 8.7
08:04 6.5 6.4 99 1000.8 10.7 NE 11.4 0.8 8.7
08:05 6.5 6.4 99 1000.7 9.8 NE 10.7 0.0 8.8
08:06 6.5 6.4 99 1000.8 10.7 NE 10.7 0.8 8.8
08:07 6.5 6.4 99 1000.8 6.9 NE 10.7 0.8 8.8
08:08 6.5 6.4 99 1001.0 6.9 NE 10.7 0.8 8.8
08:10 6.5 6.4 99 1000.8 9.8 NE 10.7 0.8 8.8
08:11 6.5 6.4 99 1000.9 10.7 N 10.7 0.0 8.8
08:12 6.5 6.4 99 1000.8 6.9 NE 10.7 0.0 8.8
08:14 6.5 6.4 99 1000.8 10.7 NE 10.7 0.0 8.8
08:15 6.5 6.4 99 1001.0 7.6 NE 10.7 0.0 8.8
08:16 6.5 6.4 99 1001.0 3.8 NE 10.7 0.0 8.8
08:17 6.6 6.5 99 1000.8 5.4 NE 10.7 0.0 8.8
08:18 6.6 6.5 99 1000.9 11.4 N 11.4 0.0 8.8
08:19 6.5 6.4 99 1001.0 9.8 E 11.4 0.0 8.8
08:21 6.6 6.5 99 1000.9 7.6 NE 11.4 0.0 8.8
08:22 6.5 6.4 99 1001.0 13.6 NE 13.6 0.0 8.8
08:23 6.6 6.5 99 1001.0 10.7 NE 13.6 0.0 8.8
08:24 6.5 6.4 99 1001.0 7.6 NE 13.6 0.0 8.8
08:25 6.6 6.5 99 1000.9 9.8 NE 13.6 0.0 8.8
08:26 6.6 6.5 99 1001.0 8.3 N 13.6 0.0 8.8
08:27 6.5 6.4 99 1001.1 7.6 NE 13.6 0.0 8.8
08:28 6.6 6.5 99 1001.1 8.3 NE 13.6 0.0 8.8
08:29 6.5 6.4 99 1001.1 6.9 NE 13.6 0.0 8.8
08:30 6.6 6.5 99 1001.2 12.1 NE 13.6 0.0 8.8
08:31 6.6 6.5 99 1001.2 12.1 NE 13.6 0.0 8.8
08:32 6.6 6.5 99 1001.1 7.6 NE 13.6 0.0 8.8
08:33 6.5 6.4 99 1001.2 9.2 NE 12.1 0.0 8.8
08:34 6.6 6.5 99 1001.1 4.5 N 12.1 0.0 8.8
08:35 6.5 6.4 99 1001.0 7.6 NE 12.1 0.0 8.8
08:36 6.5 6.4 99 1001.3 6.0 NE 12.1 0.0 8.8
08:37 6.5 6.4 99 1001.1 5.4 NE 12.1 0.0 8.8
08:38 6.6 6.5 99 1001.1 9.8 NE 12.1 0.0 8.8
08:39 6.5 6.4 99 1001.2 10.7 NE 12.1 0.0 8.8
08:40 6.5 6.4 99 1001.2 7.6 NE 12.1 0.0 8.8
08:41 6.6 6.5 99 1001.2 8.3 NE 12.1 0.0 8.8
08:42 6.6 6.5 99 1001.3 6.0 NNE 10.7 0.0 8.8
08:44 6.5 6.4 99 1001.2 6.9 NE 10.7 0.0 8.8
08:45 6.5 6.4 99 1001.4 3.8 NE 10.7 0.0 8.8
08:46 6.5 6.4 99 1001.2 14.5 NE 14.5 0.0 8.8
08:47 6.5 6.4 99 1001.2 12.1 NE 14.5 0.0 8.8
08:48 6.5 6.4 99 1001.2 7.6 NE 14.5 0.0 8.8
08:49 6.5 6.4 99 1001.2 9.8 NE 14.5 0.0 8.8
08:50 6.5 6.4 99 1001.4 6.9 NE 14.5 0.0 8.8
08:51 6.5 6.4 99 1001.4 6.0 NW 14.5 0.0 8.8
08:52 6.5 6.4 99 1001.3 9.8 NE 14.5 0.0 8.8
08:53 6.5 6.4 99 1001.4 6.0 NE 14.5 0.0 8.8
08:54 6.5 6.4 99 1001.5 4.5 N 14.5 0.0 8.8
08:55 6.5 6.4 99 1001.4 3.8 N 14.5 0.0 8.8
08:56 6.5 6.4 99 1001.4 2.2 NE 14.5 0.0 8.8
08:57 6.4 6.3 99 1001.4 6.0 NE 9.8 0.0 8.8
08:58 6.5 6.4 99 1001.5 8.3 E 9.8 0.0 8.8
08:59 6.5 6.4 99 1001.5 4.5 NE 9.8 0.0 8.8
09:00 6.5 6.4 99 1001.5 7.6 NE 9.8 0.0 8.8
09:01 6.5 6.4 99 1001.3 7.6 NE 9.8 0.0 8.8
09:02 6.5 6.4 99 1001.5 7.6 NE 9.8 0.0 8.8
09:03 6.5 6.4 99 1001.4 7.6 NE 8.3 0.0 8.8
09:04 6.5 6.4 99 1001.5 7.6 NE 8.3 0.0 8.8
09:05 6.5 6.4 99 1001.6 7.6 NE 8.3 0.0 8.8
09:06 6.5 6.4 99 1001.6 13.0 E 13.0 0.0 8.8
09:07 6.4 6.3 99 1001.6 13.0 NE 13.0 0.0 8.8
09:08 6.4 6.3 99 1001.6 9.8 NE 13.0 0.0 8.8
09:09 6.4 6.3 99 1001.7 12.1 NE 13.0 0.0 8.8
09:10 6.4 6.3 99 1001.7 9.2 NE 13.0 0.0 8.8
09:11 6.4 6.3 99 1001.6 10.7 NE 13.0 0.0 8.8
09:12 6.4 6.3 99 1001.6 6.9 N 14.5 0.0 8.8
09:13 6.4 6.3 99 1001.5 6.9 N 14.5 0.0 8.8
09:14 6.4 6.3 99 1001.6 6.9 NE 14.5 0.0 8.8
09:15 6.4 6.3 99 1001.5 7.6 N 14.5 0.0 8.8
09:16 6.4 6.3 99 1001.7 12.1 NE 14.5 0.0 8.8
09:17 6.4 6.3 99 1001.6 6.0 NE 14.5 0.0 8.8
09:18 6.4 6.3 99 1001.7 5.4 NE 14.5 0.0 8.8
09:19 6.4 6.3 99 1001.7 3.8 NE 14.5 0.0 8.8
09:20 6.4 6.3 99 1001.7 3.8 NE 14.5 0.0 8.8
09:21 6.4 6.3 99 1001.6 5.4 NE 14.5 0.0 8.8
09:22 6.4 6.3 99 1001.6 10.7 N 12.1 0.0 8.8
09:23 6.4 6.3 99 1001.7 11.4 NE 12.1 0.0 8.8
09:24 6.4 6.3 99 1001.7 9.2 N 12.1 0.0 8.8
09:25 6.3 6.2 99 1001.6 9.8 NE 14.5 0.0 8.8
09:26 6.4 6.3 99 1001.5 8.3 NE 14.5 0.0 8.8
09:27 6.3 6.2 99 1001.7 11.4 N 14.5 0.0 8.8
09:28 6.3 6.2 99 1001.7 11.4 NE 14.5 0.0 8.8
09:29 6.3 6.2 99 1001.6 9.2 N 14.5 0.0 8.8
09:31 6.3 6.2 99 1001.7 9.8 NE 14.5 0.0 8.8
09:33 6.3 6.2 99 1001.6 10.7 NE 14.5 0.0 8.8
09:34 6.3 6.2 99 1001.7 10.7 NE 14.5 0.8 8.8
09:35 6.3 6.2 99 1001.6 9.2 NE 14.5 0.8 8.8
09:36 6.3 6.2 99 1001.6 9.8 NE 13.0 0.8 8.8
09:37 6.2 6.1 99 1001.6 10.7 N 13.0 0.8 8.8
09:38 6.2 6.1 99 1001.7 13.0 N 13.0 0.8 8.8
09:39 6.2 6.1 99 1001.6 13.0 NE 13.0 0.0 8.8
09:40 6.3 6.2 99 1001.7 13.6 N 13.6 0.0 8.8
09:41 6.2 6.1 99 1001.6 13.0 N 13.6 0.0 8.8
09:42 6.2 6.1 99 1001.6 9.8 NE 13.6 0.0 8.8
09:43 6.2 6.1 99 1001.6 10.7 NE 13.6 0.0 8.8
09:44 6.2 6.1 99 1001.6 12.1 NE 13.6 0.0 8.8
09:45 6.3 6.2 99 1001.4 9.8 N 13.6 0.0 8.8
09:46 6.3 6.2 99 1001.4 9.2 NE 13.6 0.0 8.8
09:47 6.3 6.2 99 1001.5 3.8 NE 13.6 0.0 8.8
09:48 6.3 6.2 99 1001.4 3.8 NE 13.6 0.0 8.8
09:49 6.3 6.2 99 1001.4 4.5 NE 13.6 0.0 8.8
09:50 6.3 6.2 99 1001.3 9.8 NE 13.6 0.0 8.8
09:51 6.3 6.2 99 1001.2 8.3 N 13.6 0.0 8.8
09:52 6.3 6.2 99 1001.3 9.8 E 13.6 0.0 8.8
09:53 6.3 6.2 99 1001.3 8.3 N 13.6 0.0 8.8
09:54 6.3 6.2 99 1001.2 8.3 N 12.1 0.0 8.8
09:55 6.4 6.3 99 1001.6 8.3 NE 9.8 0.0 8.8
09:56 6.4 6.3 99 1001.5 10.7 N 10.7 0.0 8.8
09:57 6.4 6.3 99 1001.5 5.4 NE 10.7 0.0 8.8
09:58 6.4 6.3 99 1001.5 12.1 N 12.1 0.0 8.8
09:59 6.4 6.3 99 1001.4 6.0 N 12.1 0.0 8.8
10:00 6.4 6.3 99 1001.4 6.0 N 12.1 0.0 8.8
10:01 6.5 6.4 99 1001.4 10.7 N 12.1 0.0 8.8
10:02 6.5 6.4 99 1001.5 6.0 NE 12.1 0.0 8.8
10:03 6.4 6.3 99 1001.6 16.8 NE 16.8 0.0 8.8
10:04 6.5 6.4 99 1001.5 14.5 NE 16.8 0.0 8.8
10:05 6.5 6.4 99 1001.3 11.4 NE 16.8 0.0 8.8
10:07 6.4 6.3 99 1001.6 13.6 NE 16.8 0.0 8.8
10:08 6.5 6.4 99 1001.5 15.2 NE 16.8 0.0 8.8
10:09 6.5 6.4 99 1001.4 13.6 N 16.8 0.0 8.8
10:10 6.4 6.3 99 1001.5 14.5 NNW 16.8 0.0 8.8
10:12 6.4 6.3 99 1001.5 13.0 NE 16.8 0.0 8.8
10:13 6.4 6.3 99 1001.7 13.0 NE 16.8 0.0 8.8
10:14 6.4 6.3 99 1001.6 18.3 NE 18.3 0.0 8.8
10:16 6.4 6.3 99 1001.6 12.1 NE 18.3 0.0 8.8
10:17 6.4 6.3 99 1001.6 12.1 N 18.3 0.0 8.8
10:18 6.4 6.3 99 1001.6 9.2 N 18.3 0.0 8.8
10:19 6.4 6.3 99 1001.6 11.4 NE 18.3 0.0 8.8
10:20 6.4 6.3 99 1001.6 8.3 NE 18.3 0.0 8.8
10:21 6.4 6.3 99 1001.6 10.7 NE 18.3 0.0 8.8
10:22 6.3 6.2 99 1001.5 9.8 NE 18.3 0.0 8.8
10:23 6.3 6.2 99 1001.5 10.7 NE 18.3 0.0 8.8
10:24 6.3 6.2 99 1001.5 9.2 NE 18.3 0.0 8.8
10:25 6.2 6.1 99 1001.7 8.3 NE 13.0 0.0 8.8
10:26 6.3 6.2 99 1001.5 14.5 E 14.5 0.0 8.8
10:27 6.3 6.2 99 1001.7 12.1 NE 14.5 0.0 8.8
10:28 6.2 6.1 99 1001.6 14.5 NE 14.5 0.0 8.8
10:29 6.2 6.1 99 1001.6 12.1 N 14.5 0.0 8.8
10:30 6.2 6.1 99 1001.7 9.8 NE 14.5 0.0 8.8
10:31 6.2 6.1 99 1001.7 14.5 NE 14.5 0.0 8.8
10:32 6.2 6.1 99 1001.9 12.1 NE 14.5 0.0 8.8
10:33 6.1 6.0 99 1001.7 5.4 NE 14.5 0.0 8.8
10:34 6.1 6.0 99 1001.7 9.8 NE 14.5 0.0 8.8
10:35 6.1 6.0 99 1001.7 11.4 N 14.5 0.0 8.8
10:36 6.1 6.0 99 1001.9 6.0 N 14.5 0.0 8.8
10:37 6.1 6.0 99 1001.8 18.3 NE 18.3 0.0 8.8
10:39 6.0 5.9 99 1001.8 16.8 NE 18.3 0.0 8.8
10:40 6.0 5.9 99 1001.8 14.5 NE 18.3 0.0 8.8
10:41 6.0 5.9 99 1001.7 9.8 NE 18.3 0.0 8.8
10:42 6.0 5.9 99 1001.9 9.2 NE 18.3 0.0 8.8
10:43 5.9 5.8 99 1001.9 5.4 NE 18.3 0.0 8.8
10:44 6.0 5.9 99 1002.0 6.0 N 18.3 0.0 8.8
10:45 6.0 5.9 99 1002.0 12.1 NE 18.3 0.0 8.8
10:46 6.0 5.9 99 1002.2 13.6 NE 18.3 0.0 8.8
10:47 5.9 5.8 99 1002.1 7.6 N 18.3 0.0 8.8
10:48 5.8 5.7 99 1002.2 13.6 E 16.8 0.0 8.8
10:49 5.9 5.8 99 1002.1 11.4 S 16.8 0.0 8.8
10:50 5.9 5.8 99 1002.1 13.0 NE 14.5 0.0 8.8
10:51 5.8 5.7 99 1002.3 9.8 NE 13.6 0.0 8.8
10:52 5.8 5.7 99 1002.1 12.1 NE 13.6 0.0 8.8
10:53 5.8 5.7 99 1002.3 9.2 NE 13.6 0.0 8.8
10:54 5.7 5.6 99 1002.3 11.4 NE 13.6 0.0 8.8
10:55 5.7 5.6 99 1002.2 11.4 NE 13.6 0.0 8.8
10:56 5.7 5.6 99 1002.2 6.0 NE 13.6 0.0 8.8
10:57 5.7 5.6 99 1002.0 6.0 N 13.6 0.0 8.8
10:58 5.7 5.6 99 1002.2 9.2 NE 13.6 0.0 8.8
10:59 5.6 5.5 99 1002.2 11.4 N 13.0 0.0 8.8
11:00 5.6 5.5 99 1002.1 11.4 N 13.0 0.0 8.8
11:01 5.6 5.5 99 1002.2 11.4 N 13.0 0.0 8.8
11:02 5.6 5.5 99 1002.2 11.4 N 13.0 0.0 8.8
11:04 5.6 5.5 99 1002.2 11.4 N 13.0 0.0 8.8
11:05 5.5 5.4 99 1002.2 6.9 NW 13.0 0.0 8.8
11:06 5.5 5.4 99 1002.2 4.5 N 13.0 0.0 8.8
11:07 5.5 5.4 99 1002.3 8.3 N 13.0 0.0 8.8
11:08 5.4 5.3 99 1002.2 9.2 NE 13.0 0.0 8.8
11:09 5.5 5.4 99 1002.2 7.6 NNE 11.4 0.0 8.8
11:10 5.4 5.3 99 1002.4 9.8 NE 11.4 0.0 8.8
11:11 5.4 5.3 99 1002.4 10.7 NE 11.4 0.0 8.8
11:12 5.4 5.3 99 1002.2 10.7 NE 11.4 0.0 8.8
11:13 5.4 5.3 99 1002.4 10.7 NE 11.4 0.0 8.8
11:14 5.4 5.3 99 1002.4 13.6 NE 13.6 0.0 8.8
11:15 5.4 5.3 99 1002.4 8.3 N 13.6 0.0 8.8
11:16 5.4 5.3 99 1002.4 11.4 NE 13.6 0.0 8.8
11:17 5.4 5.3 99 1002.5 13.6 NE 13.6 0.0 8.8
11:18 5.3 5.2 99 1002.5 9.8 E 13.6 0.0 8.8
11:19 5.3 5.2 99 1002.4 7.6 NE 13.6 0.0 8.8
11:20 5.3 5.2 99 1002.4 9.2 NE 13.6 0.0 8.8
11:21 5.3 5.2 99 1002.4 9.8 N 13.6 0.0 8.8
11:22 5.2 5.1 99 1002.4 11.4 NE 13.6 0.0 8.8
11:23 5.2 5.1 99 1002.5 14.5 NE 14.5 0.0 8.8
11:24 5.2 5.1 99 1002.5 13.0 NE 14.5 0.0 8.8
11:25 5.1 5.0 99 1002.5 9.8 NE 14.5 0.0 8.8
11:26 5.1 5.0 99 1002.4 13.0 NE 14.5 0.0 8.8
11:28 5.0 4.9 99 1002.5 8.3 NE 14.5 0.0 8.8
11:29 5.0 4.9 99 1002.7 7.6 WSW 14.5 0.0 8.8
11:30 5.0 4.9 99 1002.6 9.2 NE 14.5 0.0 8.8
11:31 5.0 4.9 99 1002.7 6.0 NE 14.5 0.0 8.8
11:32 5.0 4.9 99 1002.7 11.4 NE 14.5 0.0 8.8
11:33 5.0 4.9 99 1002.7 6.9 N 14.5 0.0 8.8
11:34 5.0 4.9 99 1002.7 9.2 NE 13.0 0.0 8.8
11:35 5.0 4.9 99 1002.6 6.0 N 13.0 0.0 8.8
11:36 4.9 4.8 99 1002.7 11.4 NE 13.0 0.0 8.8
11:37 4.9 4.8 99 1002.7 6.0 NE 11.4 0.0 8.8
11:39 4.9 4.8 99 1002.7 6.9 NE 11.4 0.0 8.8
11:40 4.8 4.7 99 1002.7 5.4 NE 11.4 0.0 8.8
11:41 4.9 4.8 99 1002.7 12.1 NE 12.1 0.0 8.8
11:42 4.8 4.7 99 1002.7 9.2 NE 12.1 0.0 8.8
11:43 4.8 4.7 99 1002.7 13.6 N 13.6 0.0 8.8
11:44 4.8 4.7 99 1002.7 15.9 NE 15.9 0.0 8.8
11:45 4.8 4.7 99 1002.7 6.9 NE 15.9 0.0 8.8
11:46 4.7 4.6 99 1002.8 3.8 NE 15.9 0.0 8.8
11:47 4.7 4.6 99 1002.7 8.3 N 15.9 0.0 8.8
11:48 4.7 4.6 99 1002.8 9.2 N 15.9 0.0 8.8
11:49 4.7 4.6 99 1002.7 9.2 E 15.9 0.0 8.8
11:50 4.6 4.5 99 1002.9 13.6 N 15.9 0.0 8.8
11:51 4.6 4.5 99 1002.7 9.8 NE 15.9 0.0 8.8
11:52 4.6 4.5 99 1002.8 7.6 NE 15.9 0.0 8.8
11:53 4.6 4.5 99 1002.9 13.0 NE 15.9 0.0 8.8
11:54 4.6 4.5 99 1002.8 6.0 NE 14.5 0.0 8.8
11:55 4.5 4.4 99 1002.8 13.0 N 14.5 0.0 8.8
11:56 4.5 4.4 99 1002.9 8.3 NE 14.5 0.0 8.8
11:57 4.5 4.4 99 1003.0 12.1 NE 14.5 0.0 8.8
11:58 4.5 4.4 99 1002.9 9.2 NE 14.5 0.0 8.8
11:59 4.5 4.4 99 1002.8 6.0 NE 14.5 0.0 8.8
12:01 4.5 4.4 99 1002.9 6.0 NE 14.5 0.0 8.8
12:02 4.4 4.3 99 1003.0 6.0 N 13.0 0.0 8.8
12:03 4.4 4.3 99 1003.0 15.2 NE 15.2 0.0 8.8
12:04 4.4 4.3 99 1002.7 8.3 NE 15.2 0.0 8.8
12:05 4.4 4.3 99 1002.8 13.0 NW 15.2 0.0 8.8
12:06 4.4 4.3 99 1002.7 10.7 S 15.2 0.0 8.8
12:07 4.4 4.3 99 1002.8 11.4 N 15.2 0.0 8.8
12:08 4.4 4.3 99 1002.8 10.7 N 15.2 0.0 8.8
12:09 4.4 4.3 99 1002.7 12.1 N 15.2 0.0 8.8
12:10 4.3 4.2 99 1002.6 12.1 NW 15.2 0.0 8.8
12:12 4.3 4.2 99 1002.7 8.3 N 15.2 0.0 8.8
12:13 4.3 4.2 99 1002.7 14.5 NE 14.5 0.0 8.8
12:15 4.2 4.1 99 1002.7 11.4 N 14.5 0.0 8.8
12:16 4.2 4.1 99 1002.7 10.7 NE 14.5 0.0 8.8
12:17 4.2 4.1 99 1002.8 9.8 N 14.5 0.0 8.8
12:19 4.2 4.1 99 1002.7 7.6 SW 14.5 0.0 8.8
12:20 4.2 4.1 99 1002.8 4.5 N 14.5 0.0 8.8
12:21 4.2 4.1 99 1002.7 9.8 N 14.5 0.0 8.8
12:22 4.1 4.0 99 1002.8 7.6 NE 14.5 0.0 8.8
12:23 4.2 4.1 99 1002.8 8.3 NE 14.5 0.0 8.8
12:24 4.1 4.0 99 1002.7 6.9 NE 14.5 0.0 8.8
12:25 4.1 4.0 99 1002.7 13.0 N 13.6 0.0 8.8
12:26 4.1 4.0 99 1002.7 10.7 NE 13.6 0.0 8.8
12:27 4.1 4.0 99 1002.9 7.6 N 13.6 0.0 8.8
12:28 4.1 4.0 99 1002.8 3.8 NE 13.6 0.0 8.8
12:29 4.1 4.0 99 1002.7 15.2 E 15.2 0.0 8.8
12:30 4.1 4.0 99 1002.8 13.0 N 15.2 0.0 8.8
12:31 4.1 4.0 99 1002.8 6.0 NE 15.2 0.0 8.8
12:32 4.1 4.0 99 1002.8 4.5 NE 15.2 0.0 8.8
12:33 4.1 4.0 99 1002.7 12.1 NE 15.2 0.0 8.8
12:34 4.1 4.0 99 1002.7 10.7 NE 15.2 0.0 8.8
12:35 4.1 4.0 99 1002.8 5.4 NE 15.2 0.0 8.8
12:36 4.1 4.0 99 1002.9 10.7 NE 15.2 0.0 8.8
12:38 4.1 4.0 99 1002.9 8.3 NE 15.2 0.0 8.8
12:39 4.1 4.0 99 1003.0 6.9 NE 13.0 0.0 8.8
12:40 4.1 4.0 99 1002.9 6.0 N 13.0 0.0 8.8
12:41 4.1 4.0 99 1003.0 10.7 NE 12.1 0.0 8.8
12:42 4.1 4.0 99 1003.1 9.2 NE 12.1 0.0 8.8
12:43 4.1 4.0 99 1002.9 10.7 NE 12.1 0.0 8.8
12:44 4.1 4.0 99 1002.9 6.0 NE 11.4 0.0 8.8
12:45 4.1 4.0 99 1003.0 12.1 N 12.1 0.0 8.8
12:46 4.0 3.9 99 1002.8 4.5 N 12.1 0.0 8.8
12:47 4.0 3.9 99 1002.9 10.7 N 12.1 0.0 8.8
12:48 4.1 4.0 99 1002.7 12.1 NE 12.1 0.0 8.8
12:49 4.0 3.9 99 1002.8 14.5 NE 14.5 0.0 8.8
12:50 4.0 3.9 99 1003.0 9.8 N 14.5 0.0 8.8
12:51 4.0 3.9 99 1002.9 6.0 NE 14.5 0.0 8.8
12:52 4.0 3.9 99 1002.9 9.8 NE 14.5 0.0 8.8
12:53 4.0 3.9 99 1003.0 2.2 NE 14.5 0.0 8.8
12:54 3.9 3.8 99 1002.9 11.4 NE 14.5 0.0 8.8
12:55 3.9 3.8 99 1003.0 11.4 NE 14.5 0.0 8.8
12:56 3.9 3.8 99 1003.0 6.9 NE 14.5 0.0 8.8
12:57 3.9 3.8 99 1003.0 8.3 NE 14.5 0.0 8.8
12:58 3.9 3.8 99 1003.1 7.6 NE 14.5 0.0 8.8
13:00 3.9 3.8 99 1003.1 3.8 NE 13.0 0.0 8.8
13:01 3.9 3.8 99 1003.1 3.8 NE 13.0 0.0 8.8
13:02 3.8 3.7 99 1002.9 8.3 NE 13.0 0.0 8.8
13:03 3.8 3.7 99 1002.9 9.8 NE 13.0 0.0 8.8
13:04 3.8 3.7 99 1003.0 6.9 NE 13.0 0.0 8.8
13:05 3.8 3.7 99 1002.9 9.2 NE 11.4 0.0 8.8
13:06 3.8 3.7 99 1003.1 8.3 NE 11.4 0.0 8.8
13:07 3.8 3.7 99 1003.0 8.3 NE 11.4 0.0 8.8
13:08 3.7 3.6 99 1002.9 9.8 N 11.4 0.0 8.8
13:09 3.8 3.7 99 1003.0 8.3 NE 11.4 0.0 8.8
13:10 3.7 3.6 99 1003.0 13.0 NE 13.0 0.0 8.8
13:11 3.7 3.6 99 1003.0 13.0 NE 13.0 0.0 8.8
13:12 3.7 3.6 99 1003.2 10.7 NE 13.0 0.0 8.8
13:13 3.7 3.6 99 1003.0 14.5 N 14.5 0.0 8.8
13:14 3.7 3.6 99 1003.1 12.1 NE 14.5 0.0 8.8
13:15 3.7 3.6 99 1003.2 10.7 N 14.5 0.0 8.8
13:16 3.7 3.6 99 1003.0 10.7 NE 14.5 0.0 8.8
13:17 3.7 3.6 99 1003.1 7.6 NE 14.5 0.0 8.8
13:18 3.7 3.6 99 1003.0 12.1 N 14.5 0.0 8.8
13:19 3.6 3.5 99 1002.9 6.9 N 14.5 0.0 8.8
13:20 3.6 3.5 99 1002.9 9.2 NE 14.5 0.0 8.8
13:21 3.6 3.5 99 1003.0 4.5 NE 14.5 0.0 8.8
13:22 3.6 3.5 99 1002.8 10.7 NE 14.5 0.0 8.8
13:23 3.6 3.5 99 1002.9 4.5 NE 14.5 0.0 8.8
13:24 3.6 3.5 99 1003.0 8.3 NE 14.5 0.0 8.8
13:25 3.6 3.5 99 1003.1 11.4 NE 14.5 0.0 8.8
13:26 3.6 3.5 99 1003.0 10.7 N 14.5 0.0 8.8
13:28 3.6 3.5 99 1003.0 7.6 N 14.5 0.0 8.8
13:29 3.6 3.5 99 1003.1 8.3 NE 14.5 0.0 8.8
13:30 3.6 3.5 99 1003.1 7.6 N 11.4 0.0 8.8
13:31 3.6 3.5 99 1003.0 9.8 NE 11.4 0.0 8.8
13:32 3.6 3.5 99 1003.0 4.5 N 11.4 0.0 8.8
13:33 3.6 3.5 99 1002.9 8.3 NE 11.4 0.0 8.8
13:34 3.6 3.5 99 1003.1 9.8 NE 11.4 0.0 8.8
13:35 3.6 3.5 99 1002.9 7.6 NE 14.5 0.0 8.8
13:36 3.6 3.5 99 1002.8 9.8 NE 14.5 0.0 8.8
13:37 3.6 3.5 99 1002.9 16.8 E 16.8 0.0 8.8
13:38 3.6 3.5 99 1003.0 12.1 NE 16.8 0.0 8.8
13:39 3.6 3.5 99 1002.8 13.0 NE 16.8 0.0 8.8
13:40 3.6 3.5 99 1002.8 6.0 N 16.8 0.0 8.8
13:41 3.6 3.5 99 1002.9 9.2 W 16.8 0.0 8.8
13:42 3.6 3.5 99 1002.8 3.8 N 16.8 0.0 8.8
13:43 3.6 3.5 99 1002.9 6.0 NE 16.8 0.0 8.8
13:44 3.6 3.5 99 1003.0 11.4 NE 16.8 0.0 8.8
13:45 3.6 3.5 99 1002.9 9.8 NE 16.8 0.0 8.8
13:46 3.6 3.5 99 1002.7 9.2 N 16.8 0.0 8.8
13:47 3.6 3.5 99 1002.9 13.6 NE 13.6 0.0 8.8
13:48 3.6 3.5 99 1002.9 4.5 NE 13.6 0.0 8.8
13:49 3.6 3.5 99 1002.8 8.3 NE 13.6 0.0 8.8
13:50 3.5 3.4 99 1002.8 8.3 NE 13.6 0.0 8.8
13:51 3.5 3.4 99 1002.8 4.5 N 13.6 0.0 8.8
13:52 3.5 3.4 99 1003.0 4.5 NE 13.6 0.0 8.8
13:53 3.5 3.4 99 1002.9 8.3 NE 13.6 0.0 8.8
13:54 3.5 3.4 99 1003.0 7.6 N 13.6 0.0 8.8
13:55 3.5 3.4 99 1003.0 9.8 NE 13.6 0.0 8.8
13:56 3.5 3.4 99 1003.0 8.3 NE 13.6 0.0 8.8
13:57 3.5 3.4 99 1002.9 6.9 NE 11.4 0.0 8.8
13:58 3.5 3.4 99 1003.0 8.3 N 11.4 0.0 8.8
13:59 3.4 3.3 99 1003.0 8.3 NE 11.4 0.0 8.8
14:00 3.4 3.3 99 1003.0 8.3 NE 11.4 0.0 8.8
14:01 3.4 3.3 99 1003.2 8.3 NE 11.4 0.0 8.8
14:02 3.4 3.3 99 1003.2 8.3 NE 11.4 0.0 8.8
14:03 3.4 3.3 99 1003.1 8.3 NE 11.4 0.0 8.8
14:04 3.4 3.3 99 1003.2 8.3 NE 11.4 0.0 8.8
14:05 3.4 3.3 99 1003.2 6.0 NE 11.4 0.0 8.8
14:06 3.4 3.3 99 1003.2 7.6 NE 11.4 0.0 8.8
14:07 3.4 3.3 99 1003.2 10.7 NE 12.1 0.0 8.8
14:08 3.4 3.3 99 1003.1 9.2 NE 12.1 0.0 8.8
14:10 3.3 3.2 99 1003.1 7.6 N 14.5 0.0 8.8
14:11 3.3 3.2 99 1003.2 10.7 NE 14.5 0.0 8.8
14:13 3.3 3.2 99 1003.2 6.0 NE 14.5 0.0 8.8
14:14 3.3 3.2 99 1003.1 8.3 N 14.5 0.0 8.8
14:16 3.3 3.2 99 1003.1 8.3 NE 14.5 0.0 8.8
14:17 3.3 3.2 99 1003.1 3.8 N 14.5 0.0 8.8
14:18 3.2 3.1 99 1003.0 8.3 NE 14.5 0.0 8.8
14:19 3.2 3.1 99 1003.1 6.9 NE 14.5 0.0 8.8
14:20 3.2 3.1 99 1003.1 16.8 NE 16.8 0.0 8.8
14:21 3.2 3.1 99 1003.3 9.8 NE 16.8 0.0 8.8
14:22 3.2 3.1 99 1003.4 10.7 N 16.8 0.0 8.8
14:23 3.2 3.1 99 1003.1 9.2 NE 16.8 0.0 8.8
14:24 3.2 3.1 99 1003.1 9.8 NE 16.8 0.0 8.8
14:25 3.2 3.1 99 1003.4 8.3 N 16.8 0.0 8.8
14:27 3.1 3.0 99 1003.2 7.6 NE 16.8 0.0 8.8
14:28 3.1 3.0 99 1003.3 8.3 NE 16.8 0.0 8.8
14:29 3.1 3.0 99 1003.2 6.9 NE 16.8 0.0 8.8
14:30 3.1 3.0 99 1003.2 9.2 N 16.8 0.0 8.8
14:31 3.1 3.0 99 1003.4 6.9 N 13.0 0.0 8.8
14:32 3.1 3.0 99 1003.3 6.9 NE 13.0 0.0 8.8
14:33 3.0 2.9 99 1003.2 6.9 NE 13.0 0.0 8.8
14:34 3.0 2.9 99 1003.3 4.5 N 13.0 0.0 8.8
14:35 3.0 2.9 99 1003.4 10.7 N 13.0 0.0 8.8
14:36 3.0 2.9 99 1003.2 5.4 NE 13.0 0.0 8.8
14:37 3.0 2.9 99 1003.3 6.0 N 13.0 0.0 8.8
14:38 2.9 2.8 99 1003.3 9.2 NE 13.0 0.0 8.8
14:39 2.9 2.8 99 1003.4 5.4 N 13.0 0.0 8.8
14:40 2.9 2.8 99 1003.4 3.8 N 10.7 0.0 8.8
14:41 2.9 2.8 99 1003.3 11.4 NE 11.4 0.0 8.8
14:42 2.9 2.8 99 1003.2 8.3 NE 11.4 0.0 8.8
14:43 2.9 2.8 99 1003.3 7.6 N 11.4 0.0 8.8
14:44 2.9 2.8 99 1003.2 3.1 N 11.4 0.0 8.8
14:45 2.8 2.7 99 1003.2 11.4 N 11.4 0.0 8.8
14:46 2.8 2.7 99 1003.3 3.8 N 11.4 0.0 8.8
14:47 2.8 2.7 99 1003.2 11.4 NE 11.4 0.0 8.8
14:48 2.8 2.7 99 1003.3 9.2 NE 11.4 0.0 8.8
14:49 2.8 2.7 99 1003.2 6.9 NE 11.4 0.0 8.8
14:50 2.8 2.7 99 1003.0 7.6 N 11.4 0.0 8.8
14:51 2.8 2.7 99 1003.4 6.0 N 11.4 0.0 8.8
14:53 2.8 2.7 99 1003.3 10.7 NE 11.4 0.0 8.8
14:54 2.8 2.7 99 1003.2 5.4 N 11.4 0.0 8.8
14:55 2.7 2.6 99 1003.2 6.0 NE 11.4 0.0 8.8
14:56 2.7 2.6 99 1003.1 8.3 N 11.4 0.0 8.8
14:57 2.7 2.6 99 1003.1 7.6 NE 11.4 0.0 8.8
14:58 2.7 2.6 99 1003.4 9.8 NE 10.7 0.0 8.8
14:59 2.7 2.6 99 1003.3 15.2 NE 15.2 0.0 8.8
15:00 2.7 2.6 99 1003.4 9.2 N 15.2 0.0 8.8
15:01 2.7 2.6 99 1003.3 9.2 N 15.2 0.0 8.8
15:02 2.6 2.5 99 1003.3 7.6 NE 15.2 0.0 8.8
15:03 2.6 2.5 99 1003.3 9.2 NE 15.2 0.0 8.8
15:04 2.6 2.5 99 1003.3 12.1 N 15.2 0.0 8.8
15:05 2.6 2.5 99 1003.3 13.6 NE 15.2 0.0 8.8
15:06 2.6 2.5 99 1003.2 13.6 NE 15.2 0.0 8.8
15:07 2.5 2.4 99 1003.2 4.5 N 15.2 0.0 8.8
15:08 2.5 2.4 99 1003.2 6.9 N 15.2 0.0 8.8
15:09 2.5 2.4 99 1003.3 6.9 NE 13.6 0.0 8.8
15:10 2.5 2.4 99 1003.3 6.9 NE 13.6 0.0 8.8
15:11 2.5 2.4 99 1003.4 6.9 NE 13.6 0.0 8.8
15:12 2.5 2.4 99 1003.4 9.2 NE 13.6 0.0 8.8
15:13 2.5 2.4 99 1003.3 9.2 NE 13.6 0.0 8.8
15:15 2.5 2.4 99 1003.1 6.9 NE 13.6 0.0 8.8
15:16 2.4 2.3 99 1003.2 11.4 N 13.6 0.0 8.8
15:17 2.4 2.3 99 1003.1 7.6 NE 11.4 0.0 8.8
15:18 2.4 2.3 99 1003.1 9.8 NE 11.4 0.0 8.8
15:19 2.4 2.3 99 1003.3 5.4 NNE 11.4 0.0 8.8
15:20 2.4 2.3 99 1003.3 8.3 NE 11.4 0.0 8.8
15:21 2.4 2.3 99 1003.3 11.4 NE 11.4 0.0 8.8
15:22 2.4 2.3 99 1003.2 10.7 NE 11.4 0.0 8.8
15:23 2.4 2.3 99 1003.3 6.9 NE 11.4 0.0 8.8
15:24 2.4 2.3 99 1003.3 9.8 N 11.4 0.0 8.8
15:25 2.4 2.3 99 1003.3 8.3 N 11.4 0.0 8.8
15:26 2.4 2.3 99 1003.4 6.9 N 11.4 0.0 8.8
15:27 2.3 2.2 99 1003.4 9.8 NE 13.0 0.0 8.8
15:28 2.3 2.2 99 1003.4 11.4 NE 13.0 0.0 8.8
15:29 2.3 2.2 99 1003.4 14.5 NW 14.5 0.0 8.8
15:31 2.2 2.1 99 1003.6 8.3 NE 14.5 0.0 8.8
15:32 2.2 2.1 99 1003.6 11.4 NE 14.5 0.0 8.8
15:33 2.1 2.0 99 1003.5 9.2 N 14.5 0.0 8.8
15:34 2.1 2.0 99 1003.6 11.4 N 14.5 0.0 8.8
15:35 2.1 2.0 99 1003.5 12.1 NE 14.5 0.0 8.8
15:36 2.1 2.0 99 1003.6 9.8 NE 14.5 0.0 8.8
15:37 2.0 1.9 99 1003.5 5.4 NE 14.5 0.0 8.8
15:39 2.0 1.9 99 1003.5 7.6 N 14.5 0.0 8.8
15:41 2.0 1.9 99 1003.5 7.6 NE 12.1 0.0 8.8
15:43 1.9 1.8 99 1003.5 6.0 NE 12.1 0.0 8.8
15:45 1.9 1.8 99 1003.5 7.6 NE 12.1 0.0 8.8
15:47 1.9 1.8 99 1003.6 13.0 NE 13.0 0.0 8.8
15:49 1.8 1.7 99 1003.6 6.9 N 13.0 0.0 8.8
15:51 1.8 1.7 99 1003.5 4.5 N 13.0 0.0 8.8
15:53 1.8 1.7 99 1003.6 9.2 N 13.0 0.0 8.8
15:55 1.7 1.6 99 1003.6 7.6 NE 13.0 0.0 8.8
15:57 1.7 1.6 99 1003.5 9.8 N 12.1 0.0 8.8
15:59 1.6 1.5 99 1003.5 11.4 WNW 12.1 0.0 8.8
16:01 1.6 1.5 99 1003.5 11.4 WNW 12.1 0.0 8.8
16:03 1.6 1.5 99 1003.6 11.4 WNW 12.1 0.0 8.8
16:05 1.5 1.4 99 1003.6 7.6 NE 12.1 0.0 8.8
16:08 1.5 1.4 99 1003.5 7.6 NE 11.4 0.0 8.8
16:10 1.5 1.4 99 1003.4 4.5 NE 11.4 0.0 8.8
16:12 1.5 1.4 99 1003.3 8.3 NE 11.4 0.0 8.8
16:14 1.5 1.4 99 1003.4 7.6 NE 11.4 0.0 8.8
16:16 1.5 1.4 99 1003.4 10.7 NE 10.7 0.0 8.8
16:19 1.5 1.4 99 1003.4 10.7 N 10.7 0.8 8.9
16:21 1.5 1.4 99 1003.4 6.9 NE 10.7 0.8 8.9
16:23 1.5 1.4 99 1003.5 8.3 NE 10.7 0.0 8.9
16:26 1.5 1.4 99 1003.5 10.7 N 10.7 0.0 8.9
16:29 1.5 1.4 99 1003.5 8.3 NE 10.7 0.0 8.9
16:31 1.5 1.4 99 1003.6 4.5 NE 10.7 0.0 8.9
16:34 1.5 1.4 99 1003.4 11.4 NE 11.4 0.0 8.9
16:36 1.5 1.4 99 1003.5 8.3 NE 11.4 0.0 8.9
16:39 1.5 1.4 99 1003.2 8.3 N 11.4 0.0 8.9
16:41 1.5 1.4 99 1003.4 6.9 NE 11.4 0.0 8.9
16:44 1.5 1.4 99 1003.4 5.4 NE 11.4 0.0 8.9
16:47 1.5 1.4 99 1003.5 9.2 N 9.2 0.0 8.9
16:49 1.4 1.3 99 1003.5 7.6 N 9.2 0.0 8.9
16:52 1.4 1.3 99 1003.7 6.9 N 9.8 0.0 8.9
16:54 1.4 1.3 99 1003.5 13.6 NE 13.6 0.0 8.9
16:56 1.3 1.2 99 1003.4 8.3 NE 13.6 0.0 8.9
16:59 1.3 1.2 99 1003.7 6.0 NE 13.6 0.0 8.9
17:01 1.3 1.2 99 1003.6 6.9 N 13.6 0.0 8.9
17:02 1.3 1.2 99 1003.7 6.9 N 13.6 0.0 8.9
17:04 1.3 1.2 99 1003.7 6.9 N 9.8 0.0 8.9
17:06 1.2 1.1 99 1003.7 6.0 NE 9.2 0.0 8.9
17:09 1.2 1.1 99 1003.8 6.9 N 9.2 0.0 8.9
17:12 1.2 1.1 99 1003.8 9.8 WNW 9.8 0.0 8.9
17:16 1.1 1.0 99 1003.8 6.9 NE 11.4 0.0 8.9
17:18 1.1 1.0 99 1003.8 11.4 NE 11.4 0.0 8.9
17:20 1.1 1.0 99 1003.9 8.3 NE 11.4 0.0 8.9
17:22 1.0 0.9 99 1003.7 9.2 N 11.4 0.0 8.9
17:25 1.0 0.9 99 1003.8 11.4 NE 11.4 0.0 8.9
17:27 1.0 0.9 99 1003.8 8.3 N 13.0 0.0 8.9
17:29 0.9 0.8 99 1003.7 11.4 NE 13.0 0.0 8.9
17:31 0.9 0.8 99 1004.0 8.3 NE 13.0 0.0 8.9
17:33 0.9 0.8 99 1004.0 8.3 N 13.0 0.0 8.9
17:35 0.9 0.8 99 1004.0 13.6 N 13.6 0.0 8.9
17:37 0.8 0.7 99 1004.0 12.1 N 13.6 0.0 8.9
17:39 0.8 0.7 99 1004.0 6.0 NE 13.6 0.0 8.9
17:40 0.8 0.7 99 1004.1 9.8 N 13.6 0.0 8.9
17:41 0.8 0.7 99 1004.1 7.6 NE 13.6 0.0 8.9
17:42 0.8 0.7 99 1004.2 7.6 N 13.6 0.0 8.9
17:43 0.8 0.7 99 1004.1 8.3 N 13.6 0.0 8.9
17:44 0.8 0.7 99 1004.1 12.1 N 13.6 0.0 8.9
17:45 0.8 0.7 99 1004.2 10.7 E 13.6 0.0 8.9
17:47 0.7 0.6 99 1004.2 10.7 NE 12.1 0.0 8.9
17:48 0.7 0.4 98 1004.1 9.8 NE 12.1 0.0 8.9
17:49 0.8 0.5 98 1004.3 9.2 NE 12.1 0.0 8.9
17:51 0.7 0.4 98 1004.2 10.7 N 12.1 0.0 8.9
17:52 0.7 0.4 98 1004.2 7.6 N 12.1 0.0 8.9
17:54 0.7 0.4 98 1004.3 9.8 NE 12.1 0.0 8.9
17:56 0.7 0.4 98 1004.1 9.2 NE 10.7 0.0 8.9
17:58 0.7 0.4 98 1004.1 8.3 NE 10.7 0.0 8.9
17:59 0.7 0.4 98 1004.0 9.2 N 10.7 0.0 8.9
18:02 0.7 0.4 98 1004.1 9.2 N 10.7 0.0 8.9
18:04 0.7 0.4 98 1004.1 9.2 N 10.7 0.0 8.9
18:06 0.7 0.4 98 1004.2 7.6 NE 9.2 0.0 8.9
18:07 0.6 0.3 98 1004.3 7.6 NE 9.2 0.0 8.9
18:08 0.6 0.3 98 1004.2 9.8 NE 9.8 0.0 8.9
18:09 0.7 0.4 98 1004.3 9.2 NE 9.8 0.0 8.9
18:10 0.6 0.3 98 1004.3 5.4 N 9.8 0.0 8.9
18:11 0.6 0.3 98 1004.5 7.6 N 9.8 0.0 8.9
18:12 0.7 0.4 98 1004.4 7.6 N 9.8 0.0 8.9
18:14 0.6 0.3 98 1004.4 7.6 N 9.8 0.0 8.9
18:15 0.6 0.3 98 1004.4 9.2 N 9.8 0.0 8.9
18:17 0.6 0.3 98 1004.3 7.6 N 9.8 0.0 8.9
18:18 0.6 0.3 98 1004.4 7.6 NE 11.4 0.0 8.9
18:20 0.6 0.3 98 1004.4 6.0 NE 11.4 0.0 8.9
18:21 0.6 0.3 98 1004.4 8.3 N 11.4 0.0 8.9
18:22 0.6 0.3 98 1004.3 7.6 NE 11.4 0.0 8.9
18:23 0.6 0.3 98 1004.5 8.3 NE 11.4 0.0 8.9
18:24 0.6 0.3 98 1004.3 9.2 N 11.4 0.0 8.9
18:26 0.6 0.3 98 1004.3 9.8 NE 11.4 0.0 8.9
18:27 0.6 0.3 98 1004.3 11.4 NE 11.4 0.0 8.9
18:29 0.5 0.2 98 1004.2 6.9 NE 11.4 0.0 8.9
18:31 0.5 0.1 97 1004.4 9.8 NE 11.4 0.0 8.9
18:33 0.5 0.1 97 1004.3 9.8 N 11.4 0.0 8.9
18:34 0.5 0.1 97 1004.5 7.6 NE 11.4 0.0 8.9
18:36 0.5 0.1 97 1004.4 6.0 NE 11.4 0.0 8.9
18:37 0.5 0.1 97 1004.6 7.6 N 12.1 0.0 8.9
18:39 0.5 0.1 97 1004.5 10.7 NE 12.1 0.0 8.9
18:41 0.5 0.1 97 1004.5 9.2 NE 12.1 0.0 8.9
18:43 0.4 0.0 97 1004.5 9.8 N 12.1 0.0 8.9
18:44 0.4 0.0 97 1004.6 9.8 NE 12.1 0.0 8.9
18:46 0.4 0.0 97 1004.4 6.9 N 12.1 0.0 8.9
18:47 0.4 0.0 97 1004.5 7.6 NE 12.1 0.0 8.9
18:48 0.4 0.0 97 1004.6 10.7 NE 12.1 0.0 8.9
18:49 0.4 0.0 97 1004.5 8.3 NE 12.1 0.0 8.9
18:50 0.4 0.0 97 1004.5 8.3 NE 12.1 0.0 8.9
18:51 0.4 0.0 97 1004.7 13.0 NE 13.0 0.0 8.9
18:52 0.4 0.0 97 1004.5 10.7 NE 13.0 0.0 8.9
18:53 0.4 0.0 97 1004.7 6.0 NE 13.0 0.0 8.9
18:54 0.4 0.0 97 1004.7 6.9 NE 13.0 0.0 8.9
18:55 0.3 -0.1 97 1004.6 7.6 NE 13.0 0.0 8.9
18:57 0.3 -0.1 97 1004.7 8.3 NE 13.0 0.0 8.9
18:58 0.3 -0.1 97 1004.7 7.6 NE 13.0 0.0 8.9
18:59 0.3 -0.1 97 1004.7 9.2 NE 13.0 0.0 8.9
19:00 0.3 -0.1 97 1004.7 6.9 N 13.0 0.0 8.9
19:02 0.3 -0.1 97 1004.5 6.9 N 10.7 0.0 8.9
19:03 0.3 -0.1 97 1004.4 6.9 N 9.2 0.0 8.9
19:04 0.3 -0.1 97 1004.4 6.9 N 9.2 0.0 8.9
19:05 0.3 -0.1 97 1004.6 7.6 NW 9.2 0.0 8.9
19:06 0.3 -0.1 97 1004.6 8.3 N 9.2 0.0 8.9
19:08 0.3 -0.1 97 1004.6 6.0 NE 9.8 0.0 8.9
19:10 0.3 -0.1 97 1004.5 11.4 NE 11.4 0.0 8.9
19:13 0.2 -0.2 97 1004.6 7.6 N 13.6 0.0 8.9
19:16 0.2 -0.2 97 1004.6 5.4 N 13.6 0.0 8.9
19:18 0.2 -0.2 97 1004.6 7.6 N 13.6 0.0 8.9
19:21 0.2 -0.2 97 1004.7 9.8 NE 13.0 0.0 8.9
19:24 0.1 -0.3 97 1004.7 10.7 NE 13.0 0.0 8.9
19:26 0.1 -0.5 96 1004.7 11.4 NE 13.0 0.0 8.9
19:29 0.1 -0.5 96 1004.6 13.0 NE 13.0 0.0 8.9
19:31 0.1 -0.5 96 1004.8 8.3 NE 13.0 0.0 8.9
19:33 0.1 -0.5 96 1004.7 12.1 N 13.0 0.0 8.9
19:35 0.0 -0.6 96 1004.7 11.4 NE 13.0 0.0 8.9
19:37 0.0 -0.6 96 1004.7 11.4 N 13.0 0.0 8.9
19:39 0.0 -0.6 96 1004.8 6.9 WNW 16.8 0.0 8.9
19:42 0.0 -0.6 96 1004.8 10.7 N 16.8 0.0 8.9
19:44 0.0 -0.6 96 1004.9 7.6 N 16.8 0.0 8.9
19:45 0.0 -0.6 96 1004.9 5.4 N 16.8 0.0 8.9
19:47 0.0 -0.6 96 1004.9 8.3 NE 16.8 0.0 8.9
19:48 0.0 -0.6 96 1004.7 8.3 NE 16.8 0.0 8.9
19:49 0.0 -0.6 96 1004.7 8.3 NE 13.6 0.0 8.9
19:50 0.0 -0.6 96 1004.6 7.6 NE 13.6 0.0 8.9
19:51 0.0 -0.6 96 1004.8 8.3 N 10.7 0.0 8.9
19:52 -0.1 -0.7 96 1004.7 8.3 NE 8.3 0.0 8.9
19:53 -0.1 -0.7 96 1004.7 9.8 N 9.8 0.0 8.9
19:54 -0.1 -0.7 96 1004.6 11.4 NE 11.4 0.0 8.9
19:56 -0.1 -0.7 96 1004.7 9.2 NE 11.4 0.0 8.9
19:57 -0.1 -0.7 96 1004.8 7.6 N 11.4 0.0 8.9
19:58 -0.1 -0.7 96 1004.8 8.3 N 11.4 0.0 8.9
19:59 -0.1 -0.7 96 1004.7 11.4 N 11.4 0.0 8.9
20:00 -0.1 -0.7 96 1004.9 9.2 NE 11.4 0.0 8.9
20:01 -0.1 -0.7 96 1004.8 9.2 NE 11.4 0.0 8.9
20:02 -0.1 -0.7 96 1004.8 9.2 NE 11.4 0.0 8.9
20:03 -0.1 -0.7 96 1004.8 9.2 NE 11.4 0.0 8.9
20:04 -0.1 -0.7 96 1005.0 9.2 NE 11.4 0.0 8.9
20:06 -0.1 -0.7 96 1004.9 9.2 N 11.4 0.0 8.9
20:07 -0.1 -0.7 96 1004.8 9.2 N 11.4 0.0 8.9
20:08 -0.1 -0.7 96 1005.0 8.3 N 11.4 0.0 8.9
20:09 -0.1 -0.7 96 1005.0 8.3 N 9.2 0.0 8.9
20:10 -0.2 -0.8 96 1004.8 7.6 N 9.2 0.0 8.9
20:12 -0.2 -0.8 96 1004.8 12.1 NE 12.1 0.0 8.9
20:13 -0.2 -0.8 96 1004.9 13.0 N 13.0 0.0 8.9
20:15 -0.2 -0.9 95 1004.9 10.7 NE 13.0 0.0 8.9
20:16 -0.2 -0.9 95 1005.0 9.2 N 13.0 0.0 8.9
20:18 -0.2 -0.9 95 1005.1 9.8 NE 13.0 0.0 8.9
20:19 -0.2 -0.9 95 1005.0 9.2 NE 13.0 0.0 8.9
20:21 -0.2 -0.9 95 1004.9 9.2 N 13.0 0.0 8.9
20:22 -0.2 -0.9 95 1004.9 8.3 NE 13.0 0.0 8.9
20:24 -0.3 -1.0 95 1005.0 5.4 NE 10.7 0.0 8.9
20:25 -0.3 -1.0 95 1004.9 5.4 NE 10.7 0.0 8.9
20:26 -0.3 -1.0 95 1004.9 6.0 N 10.7 0.0 8.9
20:27 -0.3 -1.0 95 1005.0 8.3 N 9.8 0.0 8.9
20:29 -0.3 -1.0 95 1004.9 9.2 N 9.2 0.0 8.9
20:30 -0.3 -1.0 95 1005.0 9.2 N 9.2 0.0 8.9
20:31 -0.3 -1.0 95 1004.8 5.4 N 9.2 0.0 8.9
20:32 -0.3 -1.0 95 1004.8 4.5 N 9.2 0.0 8.9
20:33 -0.3 -1.0 95 1004.9 9.8 NE 9.8 0.0 8.9
20:34 -0.3 -1.0 95 1004.8 4.5 NE 9.8 0.0 8.9
20:35 -0.3 -1.0 95 1005.0 3.8 N 9.8 0.0 8.9
20:36 -0.3 -1.1 94 1005.0 3.1 N 9.8 0.0 8.9
20:37 -0.4 -1.2 94 1004.9 5.4 NE 9.8 0.0 8.9
20:39 -0.3 -1.0 95 1004.9 4.5 NE 9.8 0.0 8.9
20:40 -0.3 -1.1 94 1004.9 3.8 NNE 9.8 0.0 8.9
20:41 -0.4 -1.2 94 1005.0 3.8 NE 9.8 0.0 8.9
20:42 -0.4 -1.2 94 1004.9 3.8 NE 9.8 0.0 8.9
20:44 -0.4 -1.2 94 1004.9 3.8 NE 6.0 0.0 8.9
20:45 -0.4 -1.2 94 1005.1 4.5 N 6.0 0.0 8.9
20:46 -0.4 -1.2 94 1005.0 5.4 NE 6.0 0.0 8.9
20:47 -0.4 -1.2 94 1004.8 4.5 NE 6.0 0.0 8.9
20:49 -0.4 -1.2 94 1005.0 3.1 NE 6.0 0.0 8.9
20:50 -0.4 -1.2 94 1004.9 3.8 N 7.6 0.0 8.9
20:51 -0.4 -1.2 94 1005.0 5.4 NE 7.6 0.0 8.9
20:52 -0.4 -1.2 94 1004.7 6.9 NE 7.6 0.0 8.9
20:53 -0.4 -1.2 94 1004.9 6.0 NE 7.6 0.0 8.9
20:54 -0.5 -1.3 94 1004.9 6.0 NE 7.6 0.0 8.9
20:55 -0.5 -1.3 94 1004.7 5.4 N 7.6 0.0 8.9
20:57 -0.5 -1.3 94 1004.9 9.8 NE 9.8 0.0 8.9
20:58 -0.5 -1.3 94 1004.9 8.3 NE 9.8 0.0 8.9
20:59 -0.5 -1.3 94 1004.9 13.0 N 13.0 0.0 8.9
21:00 -0.5 -1.3 94 1004.8 9.2 NE 13.0 0.0 8.9
21:01 -0.5 -1.3 94 1004.8 9.2 NE 13.0 0.0 8.9
21:02 -0.5 -1.3 94 1004.8 9.2 NE 13.0 0.0 8.9
21:03 -0.5 -1.3 94 1004.8 9.2 NE 13.0 0.0 8.9
21:05 -0.5 -1.3 94 1004.8 9.2 N 13.0 0.0 8.9
21:06 -0.5 -1.3 94 1004.8 8.3 NE 13.0 0.0 8.9
21:07 -0.6 -1.4 94 1004.8 3.8 NE 13.0 0.0 8.9
21:08 -0.6 -1.4 94 1004.7 7.6 N 13.0 0.0 8.9
21:09 -0.6 -1.4 94 1004.9 9.2 N 9.2 0.0 8.9
21:10 -0.6 -1.6 93 1005.1 4.5 NE 9.2 0.0 8.9
21:11 -0.6 -1.4 94 1005.2 7.6 N 9.2 0.0 8.9
21:13 -0.6 -1.6 93 1004.8 9.2 NE 9.2 0.0 8.9
21:14 -0.7 -1.7 93 1004.9 9.8 N 10.7 0.0 8.9
21:16 -0.7 -1.7 93 1004.9 9.8 NE 10.7 0.0 8.9
21:17 -0.7 -1.7 93 1005.1 12.1 N 12.1 0.0 8.9
21:18 -0.8 -1.8 93 1004.8 10.7 N 13.6 0.0 8.9
21:19 -0.8 -1.8 93 1004.9 10.7 NE 13.6 0.0 8.9
21:20 -0.8 -1.8 93 1004.9 12.1 N 13.6 0.0 8.9
21:22 -0.8 -1.8 93 1004.8 9.2 N 13.6 0.0 8.9
21:23 -0.8 -1.8 93 1004.8 7.6 N 13.6 0.0 8.9
21:24 -0.8 -1.8 93 1004.9 10.7 NE 13.6 0.0 8.9
21:25 -0.9 -1.9 93 1004.9 9.2 NE 13.6 0.0 8.9
21:27 -0.9 -1.9 93 1004.8 9.8 NE 13.6 0.0 8.9
21:28 -0.9 -1.9 93 1004.8 5.4 NE 13.6 0.0 8.9
21:29 -0.9 -1.9 93 1005.1 5.4 N 12.1 0.0 8.9
21:30 -0.9 -1.9 93 1004.8 9.2 N 10.7 0.0 8.9
21:31 -0.9 -2.0 92 1004.8 6.0 N 10.7 0.0 8.9
21:32 -1.0 -2.0 93 1004.9 6.9 NE 10.7 0.0 8.9
21:33 -1.0 -2.1 92 1004.7 6.0 NE 10.7 0.0 8.9
21:35 -1.0 -2.1 92 1004.8 6.9 N 9.8 0.0 8.9
21:36 -1.0 -2.1 92 1004.8 7.6 NE 9.8 0.0 8.9
21:37 -1.1 -2.2 92 1004.7 6.0 NW 9.2 0.0 8.9
21:38 -1.1 -2.2 92 1004.7 7.6 NE 9.2 0.0 8.9
21:39 -1.1 -2.2 92 1004.6 6.9 NE 9.2 0.0 8.9
21:40 -1.1 -2.2 92 1004.8 7.6 NE 9.2 0.0 8.9
21:41 -1.1 -2.2 92 1004.8 9.2 N 9.2 0.0 8.9
21:43 -1.2 -2.3 92 1004.7 6.9 N 9.2 0.0 8.9
21:44 -1.2 -2.3 92 1004.7 9.2 NE 9.8 0.0 8.9
21:45 -1.2 -2.3 92 1004.7 4.5 N 9.8 0.0 8.9
21:46 -1.2 -2.3 92 1004.8 6.0 NE 9.8 0.0 8.9
21:47 -1.2 -2.3 92 1004.7 3.8 NE 9.8 0.0 8.9
21:48 -1.2 -2.3 92 1004.6 6.0 N 9.8 0.0 8.9
21:49 -1.2 -2.3 92 1004.7 3.8 N 9.8 0.0 8.9
21:50 -1.3 -2.4 92 1004.6 2.2 N 9.8 0.0 8.9
21:52 -1.3 -2.4 92 1004.7 2.2 N 9.8 0.0 8.9
21:53 -1.3 -2.4 92 1004.6 2.2 N 9.8 0.0 8.9
21:54 -1.3 -2.4 92 1004.8 3.1 N 9.2 0.0 8.9
21:55 -1.3 -2.4 92 1004.9 3.8 N 6.0 0.0 8.9
21:56 -1.3 -2.6 91 1004.7 5.4 N 7.6 0.0 8.9
21:57 -1.4 -2.5 92 1004.7 3.8 NE 7.6 0.0 8.9
21:58 -1.4 -2.5 92 1004.7 3.8 NE 7.6 0.0 8.9
21:59 -1.4 -2.7 91 1004.6 5.4 N 7.6 0.0 8.9
22:00 -1.4 -2.7 91 1004.6 5.4 N 7.6 0.0 8.9
22:01 -1.4 -2.7 91 1004.9 5.4 N 7.6 0.0 8.9
22:03 -1.4 -2.7 91 1004.8 5.4 N 7.6 0.0 8.9
22:04 -1.4 -2.7 91 1004.8 5.4 N 7.6 0.0 8.9
22:05 -1.5 -2.8 91 1004.8 3.8 NE 7.6 0.0 8.9
22:06 -1.5 -2.8 91 1004.6 2.2 NE 6.0 0.0 8.9
22:07 -1.5 -2.8 91 1004.7 3.1 N 5.4 0.0 8.9
22:09 -1.5 -2.8 91 1004.7 3.1 N 5.4 0.0 8.9
22:10 -1.5 -2.8 91 1004.7 2.2 N 5.4 0.0 8.9
22:11 -1.5 -2.8 91 1004.6 2.2 N 5.4 0.0 8.9
22:12 -1.6 -2.9 91 1004.6 3.1 N 5.4 0.0 8.9
22:14 -1.6 -2.9 91 1004.8 2.2 N 5.4 0.0 8.9
22:15 -1.6 -2.9 91 1004.8 3.8 N 3.8 0.0 8.9
22:17 -1.6 -2.9 91 1004.6 3.8 N 3.8 0.0 8.9
22:19 -1.6 -2.9 91 1004.7 4.5 N 4.5 0.0 8.9
22:20 -1.7 -3.0 91 1004.7 2.2 N 4.5 0.0 8.9
22:22 -1.7 -3.0 91 1004.6 3.1 N 4.5 0.0 8.9
22:23 -1.7 -3.0 91 1004.7 1.6 N 4.5 0.0 8.9
22:25 -1.7 -3.0 91 1004.7 3.1 N 4.5 0.0 8.9
22:26 -1.7 -3.0 91 1004.6 2.2 N 4.5 0.0 8.9
22:27 -1.8 -3.1 91 1004.6 3.1 N 4.5 0.0 8.9
22:29 -1.8 -3.1 91 1004.7 2.2 N 4.5 0.0 8.9
22:30 -1.8 -3.1 91 1004.5 2.2 N 3.8 0.0 8.9
22:31 -1.8 -3.1 91 1004.6 3.1 N 3.8 0.0 8.9
22:32 -1.8 -3.1 91 1004.6 3.8 N 3.8 0.0 8.9
22:33 -1.8 -3.1 91 1004.7 3.1 N 3.8 0.0 8.9
22:34 -1.8 -3.1 91 1004.5 3.1 N 3.8 0.0 8.9
22:35 -1.8 -3.1 91 1004.5 3.1 N 3.8 0.0 8.9
22:36 -1.9 -3.2 91 1004.5 3.1 N 3.8 0.0 8.9
22:38 -1.9 -3.2 91 1004.5 1.6 N 3.8 0.0 8.9
22:39 -1.9 -3.2 91 1004.5 1.6 N 3.8 0.0 8.9
22:40 -1.9 -3.2 91 1004.4 2.2 N 3.8 0.0 8.9
22:41 -1.9 -3.2 91 1004.5 3.1 N 4.5 0.0 8.9
22:42 -1.9 -3.2 91 1004.6 2.2 N 4.5 0.0 8.9
22:43 -1.9 -3.2 91 1004.5 3.8 N 4.5 0.0 8.9
22:44 -1.9 -3.2 91 1004.6 3.8 N 4.5 0.0 8.9
22:45 -2.0 -3.3 91 1004.6 5.4 N 5.4 0.0 8.9
22:47 -2.0 -3.3 91 1004.7 3.1 N 5.4 0.0 8.9
22:48 -2.0 -3.3 91 1004.5 3.1 N 5.4 0.0 8.9
22:49 -2.0 -3.3 91 1004.5 3.1 N 5.4 0.0 8.9
22:50 -2.0 -3.3 91 1004.6 5.4 N 5.4 0.0 8.9
22:51 -2.0 -3.3 91 1004.6 4.5 N 5.4 0.0 8.9
22:52 -2.0 -3.3 91 1004.5 3.8 N 5.4 0.0 8.9
22:53 -2.0 -3.3 91 1004.7 4.5 N 5.4 0.0 8.9
22:55 -2.0 -3.3 91 1004.5 4.5 N 5.4 0.0 8.9
22:56 -2.0 -3.3 91 1004.5 1.6 N 5.4 0.0 8.9
22:57 -2.1 -3.4 91 1004.5 3.8 N 5.4 0.0 8.9
22:58 -2.1 -3.4 91 1004.5 3.8 N 5.4 0.0 8.9
22:59 -2.1 -3.4 91 1004.4 2.2 N 5.4 0.0 8.9
23:00 -2.1 -3.4 91 1004.5 2.2 N 4.5 0.0 8.9
23:01 -2.1 -3.4 91 1004.6 2.2 N 4.5 0.0 8.9
23:02 -2.1 -3.4 91 1004.5 2.2 N 4.5 0.0 8.9
23:04 -2.1 -3.4 91 1004.7 2.2 N 4.5 0.0 8.9
23:05 -2.1 -3.4 91 1004.5 4.5 N 4.5 0.0 8.9
23:06 -2.1 -3.4 91 1004.5 3.8 N 4.5 0.0 8.9
23:07 -2.1 -3.4 91 1004.5 2.2 N 4.5 0.0 8.9
23:08 -2.1 -3.4 91 1004.5 4.5 N 4.5 0.0 8.9
23:09 -2.1 -3.4 91 1004.5 3.1 N 4.5 0.0 8.9
23:10 -2.1 -3.4 91 1004.5 3.1 N 4.5 0.0 8.9
23:11 -2.1 -3.4 91 1004.6 3.8 NE 4.5 0.0 8.9
23:13 -2.1 -3.4 91 1004.6 3.8 NE 5.4 0.0 8.9
23:14 -2.1 -3.4 91 1004.5 3.8 N 5.4 0.0 8.9
23:15 -2.1 -3.2 92 1004.5 2.2 N 5.4 0.0 8.9
23:16 -2.2 -3.5 91 1004.7 4.5 N 5.4 0.0 8.9
23:17 -2.2 -3.5 91 1004.6 2.2 N 5.4 0.0 8.9
23:18 -2.2 -3.5 91 1004.4 3.1 N 5.4 0.0 8.9
23:20 -2.2 -3.3 92 1004.6 3.8 N 5.4 0.0 8.9
23:21 -2.2 -3.3 92 1004.7 3.1 N 5.4 0.0 8.9
23:22 -2.2 -3.5 91 1004.6 3.8 N 5.4 0.0 8.9
23:23 -2.2 -3.5 91 1004.6 3.8 N 4.5 0.0 8.9
23:24 -2.2 -3.3 92 1004.7 3.1 N 4.5 0.0 8.9
23:25 -2.2 -3.3 92 1004.7 3.1 N 4.5 0.0 8.9
23:26 -2.3 -3.4 92 1004.5 2.2 N 4.5 0.0 8.9
23:28 -2.3 -3.4 92 1004.5 5.4 N 5.4 0.0 8.9
23:29 -2.3 -3.4 92 1004.5 5.4 N 5.4 0.0 8.9
23:30 -2.2 -3.3 92 1004.5 3.8 N 5.4 0.0 8.9
23:31 -2.3 -3.4 92 1004.6 4.5 N 5.4 0.0 8.9
23:32 -2.3 -3.4 92 1004.5 5.4 NE 5.4 0.0 8.9
23:33 -2.3 -3.4 92 1004.5 3.1 NE 5.4 0.0 8.9
23:34 -2.3 -3.4 92 1004.5 3.8 N 5.4 0.0 8.9
23:35 -2.3 -3.4 92 1004.5 2.2 N 5.4 0.0 8.9
23:36 -2.3 -3.4 92 1004.4 4.5 NE 5.4 0.0 8.9
23:38 -2.3 -3.4 92 1004.4 2.2 NE 5.4 0.0 8.9
23:39 -2.3 -3.4 92 1004.5 3.1 NE 5.4 0.0 8.9
23:40 -2.3 -3.4 92 1004.5 2.2 NE 5.4 0.0 8.9
23:41 -2.3 -3.4 92 1004.6 2.2 NE 5.4 0.0 8.9
23:42 -2.3 -3.4 92 1004.4 2.2 NE 5.4 0.0 8.9
23:43 -2.3 -3.4 92 1004.7 3.8 N 5.4 0.0 8.9
23:44 -2.3 -3.4 92 1004.6 3.8 N 5.4 0.0 8.9
23:45 -2.3 -3.4 92 1004.5 2.2 N 5.4 0.0 8.9
23:46 -2.3 -3.4 92 1004.5 1.6 N 5.4 0.0 8.9
23:47 -2.3 -3.4 92 1004.6 1.6 N 4.5 0.0 8.9
23:49 -2.3 -3.4 92 1004.6 3.8 N 4.5 0.0 8.9
23:50 -2.3 -3.4 92 1004.4 2.2 N 3.8 0.0 8.9
23:51 -2.4 -3.5 92 1004.5 2.2 N 3.8 0.0 8.9
23:52 -2.4 -3.5 92 1004.6 2.2 N 3.8 0.0 8.9
23:53 -2.4 -3.5 92 1004.6 3.1 N 3.8 0.0 8.9
23:54 -2.4 -3.5 92 1004.5 3.1 N 3.8 0.0 8.9
23:55 -2.4 -3.5 92 1004.5 5.4 N 5.4 0.0 8.9
23:57 -2.4 -3.5 92 1004.4 3.1 N 5.4 0.0 8.9
23:58 -2.5 -3.6 92 1004.5 3.1 N 5.4 0.0 8.9

UK - WEATHER STATION TOPSITES - UK World Weather Websites

This is a private weather station, never base important decisions or events on data from this weather station. Although every effort has been made to make the data as accurate as possible it does not meet MetOffice standards. It is proved as a guide of local weather conditions. We accept no liability for any loss which may arise from use of the data.

Copyright © Carnkie Weather 2009 - 2018.